Wetterdaten: Dienstag, 16.02.2016
Datum Zeit Temp. Aussen Temp. o. S. +5cm Feuchte Auss BlattFeu 1 Luftdruck Regen Sonnenschein Regendauer Solar Windben Empfang
16.02.2016 00:00 -2,8 C -4,4 C -4,4 C 89 % 0 lf 1030,0 hPa 0,0 l/m 0 min 0 min 0 W/m 0,0 km/h (0 Bft) 95,74 %
16.02.2016 00:02 -2,8 C -4,4 C -4,4 C 89 % 0 lf 1030,0 hPa 0,0 l/m 0 min 0 min 0 W/m 2,1 km/h (1 Bft) 96,88 %
16.02.2016 00:06 -2,8 C -4,4 C -4,4 C 89 % 0 lf 1030,1 hPa 0,0 l/m 0 min 0 min 0 W/m 2,1 km/h (1 Bft) 98,92 %
16.02.2016 00:08 -2,8 C -4,4 C -4,4 C 89 % 0 lf 1030,1 hPa 0,0 l/m 0 min 0 min 0 W/m 0,0 km/h (0 Bft) 97,87 %
16.02.2016 00:10 -2,8 C -4,4 C -4,4 C 89 % 0 lf 1030,2 hPa 0,0 l/m 0 min 0 min 0 W/m 0,0 km/h (0 Bft) 95,74 %
16.02.2016 00:12 -2,8 C -4,4 C -4,4 C 89 % 0 lf 1030,2 hPa 0,0 l/m 0 min 0 min 0 W/m 2,1 km/h (1 Bft) 97,87 %
16.02.2016 00:14 -2,9 C -4,4 C -4,4 C 89 % 0 lf 1030,3 hPa 0,0 l/m 0 min 0 min 0 W/m 0,0 km/h (0 Bft) 100,00 %
16.02.2016 00:16 -2,9 C -3,9 C -4,4 C 89 % 0 lf 1030,3 hPa 0,0 l/m 0 min 0 min 0 W/m 0,0 km/h (0 Bft) 93,62 %
16.02.2016 00:18 -2,9 C -3,9 C -4,4 C 89 % 0 lf 1030,3 hPa 0,0 l/m 0 min 0 min 0 W/m 0,0 km/h (0 Bft) 93,48 %
16.02.2016 00:20 -2,9 C -3,9 C -4,4 C 89 % 0 lf 1030,4 hPa 0,0 l/m 0 min 0 min 0 W/m 2,1 km/h (1 Bft) 95,74 %
16.02.2016 00:22 -2,9 C -3,9 C -4,4 C 89 % 0 lf 1030,4 hPa 0,0 l/m 0 min 0 min 0 W/m 4,2 km/h (1 Bft) 97,87 %
16.02.2016 00:24 -2,9 C -4,4 C -4,4 C 89 % 0 lf 1030,5 hPa 0,0 l/m 0 min 0 min 0 W/m 4,2 km/h (1 Bft) 97,87 %
16.02.2016 00:26 -2,9 C -4,4 C -4,4 C 89 % 0 lf 1030,5 hPa 0,0 l/m 0 min 0 min 0 W/m 4,2 km/h (1 Bft) 95,74 %
16.02.2016 00:28 -2,9 C -4,4 C -4,4 C 89 % 0 lf 1030,6 hPa 0,0 l/m 0 min 0 min 0 W/m 4,2 km/h (1 Bft) 97,83 %
16.02.2016 00:30 -2,9 C -4,4 C -4,4 C 90 % 0 lf 1030,6 hPa 0,0 l/m 0 min 0 min 0 W/m 4,2 km/h (1 Bft) 97,87 %
16.02.2016 00:32 -2,9 C -4,4 C -4,4 C 90 % 0 lf 1030,7 hPa 0,0 l/m 0 min 0 min 0 W/m 4,2 km/h (1 Bft) 95,74 %
16.02.2016 00:34 -2,9 C -3,9 C -4,4 C 90 % 0 lf 1030,7 hPa 0,0 l/m 0 min 0 min 0 W/m 2,1 km/h (1 Bft) 93,62 %
16.02.2016 00:36 -3,0 C -4,4 C -4,4 C 90 % 0 lf 1030,7 hPa 0,0 l/m 0 min 0 min 0 W/m 2,1 km/h (1 Bft) 97,87 %
16.02.2016 00:38 -3,0 C -4,4 C -4,4 C 90 % 0 lf 1030,8 hPa 0,0 l/m 0 min 0 min 0 W/m 4,2 km/h (1 Bft) 97,87 %
16.02.2016 00:40 -3,0 C -4,4 C -4,4 C 90 % 0 lf 1030,8 hPa 0,0 l/m 0 min 0 min 0 W/m 4,2 km/h (1 Bft) 97,83 %
16.02.2016 00:42 -3,0 C -4,4 C -4,4 C 90 % 0 lf 1030,9 hPa 0,0 l/m 0 min 0 min 0 W/m 2,1 km/h (1 Bft) 95,74 %
16.02.2016 00:44 -3,0 C -4,4 C -4,4 C 90 % 0 lf 1030,9 hPa 0,0 l/m 0 min 0 min 0 W/m 2,1 km/h (1 Bft) 95,74 %
16.02.2016 00:46 -3,1 C -4,4 C -4,4 C 90 % 0 lf 1030,9 hPa 0,0 l/m 0 min 0 min 0 W/m 0,0 km/h (0 Bft) 97,87 %
16.02.2016 00:48 -3,1 C -4,4 C -4,4 C 90 % 0 lf 1031,0 hPa 0,0 l/m 0 min 0 min 0 W/m 2,1 km/h (1 Bft) 95,74 %
16.02.2016 00:50 -3,1 C -4,4 C -4,4 C 90 % 0 lf 1030,9 hPa 0,0 l/m 0 min 0 min 0 W/m 2,1 km/h (1 Bft) 95,74 %
16.02.2016 00:52 -3,1 C -4,4 C -4,4 C 90 % 0 lf 1031,1 hPa 0,0 l/m 0 min 0 min 0 W/m 2,1 km/h (1 Bft) 97,83 %
16.02.2016 00:54 -3,1 C -4,4 C -4,4 C 90 % 0 lf 1031,0 hPa 0,0 l/m 0 min 0 min 0 W/m 4,2 km/h (1 Bft) 97,87 %
16.02.2016 00:56 -3,1 C -4,4 C -5,0 C 90 % 0 lf 1031,1 hPa 0,0 l/m 0 min 0 min 0 W/m 2,1 km/h (1 Bft) 95,74 %
16.02.2016 00:58 -3,1 C -4,4 C -5,0 C 90 % 0 lf 1031,1 hPa 0,0 l/m 0 min 0 min 0 W/m 0,0 km/h (0 Bft) 97,87 %
16.02.2016 01:00 -3,1 C -4,4 C -5,0 C 90 % 0 lf 1031,1 hPa 0,0 l/m 0 min 0 min 0 W/m 0,0 km/h (0 Bft) 97,87 %
16.02.2016 01:02 -3,1 C -4,4 C -5,0 C 90 % 0 lf 1031,2 hPa 0,0 l/m 0 min 0 min 0 W/m 0,0 km/h (0 Bft) 97,87 %
16.02.2016 01:04 -3,2 C -4,4 C -5,0 C 90 % 0 lf 1031,2 hPa 0,0 l/m 0 min 0 min 0 W/m 2,1 km/h (1 Bft) 95,65 %
16.02.2016 01:06 -3,2 C -4,4 C -5,0 C 90 % 0 lf 1031,3 hPa 0,0 l/m 0 min 0 min 0 W/m 0,0 km/h (0 Bft) 97,87 %
16.02.2016 01:08 -3,2 C -4,4 C -5,0 C 90 % 0 lf 1031,4 hPa 0,0 l/m 0 min 0 min 0 W/m 0,0 km/h (0 Bft) 97,87 %
16.02.2016 01:10 -3,2 C -4,4 C -5,0 C 90 % 0 lf 1031,3 hPa 0,0 l/m 0 min 0 min 0 W/m 0,0 km/h (0 Bft) 97,87 %
16.02.2016 01:12 -3,2 C -4,4 C -5,0 C 90 % 0 lf 1031,4 hPa 0,0 l/m 0 min 0 min 0 W/m 0,0 km/h (0 Bft) 97,87 %
16.02.2016 01:14 -3,2 C -4,4 C -5,0 C 91 % 0 lf 1031,4 hPa 0,0 l/m 0 min 0 min 0 W/m 0,0 km/h (0 Bft) 97,87 %
16.02.2016 01:16 -3,2 C -5,0 C -5,0 C 91 % 0 lf 1031,4 hPa 0,0 l/m 0 min 0 min 0 W/m 0,0 km/h (0 Bft) 100,00 %
16.02.2016 01:18 -3,3 C -5,0 C -5,0 C 91 % 0 lf 1031,4 hPa 0,0 l/m 0 min 0 min 0 W/m 0,0 km/h (0 Bft) 97,87 %
16.02.2016 01:20 -3,3 C -5,0 C -5,0 C 91 % 0 lf 1031,4 hPa 0,0 l/m 0 min 0 min 0 W/m 2,1 km/h (1 Bft) 95,74 %
16.02.2016 01:22 -3,3 C -5,0 C -5,0 C 91 % 0 lf 1031,5 hPa 0,0 l/m 0 min 0 min 0 W/m 0,0 km/h (0 Bft) 97,87 %
16.02.2016 01:24 -3,3 C -5,0 C -5,0 C 91 % 0 lf 1031,6 hPa 0,0 l/m 0 min 0 min 0 W/m 0,0 km/h (0 Bft) 93,62 %
16.02.2016 01:26 -3,3 C -5,0 C -5,0 C 91 % 0 lf 1031,7 hPa 0,0 l/m 0 min 0 min 0 W/m 0,0 km/h (0 Bft) 100,00 %
16.02.2016 01:28 -3,3 C -5,0 C -5,0 C 91 % 0 lf 1031,7 hPa 0,0 l/m 0 min 0 min 0 W/m 2,1 km/h (1 Bft) 100,00 %
16.02.2016 01:30 -3,3 C -5,0 C -5,0 C 91 % 0 lf 1031,8 hPa 0,0 l/m 0 min 0 min 0 W/m 0,0 km/h (0 Bft) 100,00 %
16.02.2016 01:32 -3,4 C -5,0 C -5,0 C 91 % 0 lf 1031,8 hPa 0,0 l/m 0 min 0 min 0 W/m 0,0 km/h (0 Bft) 100,00 %
16.02.2016 01:34 -3,4 C -5,0 C -5,0 C 91 % 0 lf 1031,9 hPa 0,0 l/m 0 min 0 min 0 W/m 2,1 km/h (1 Bft) 97,87 %
16.02.2016 01:36 -3,4 C -5,0 C -5,0 C 91 % 0 lf 1031,9 hPa 0,0 l/m 0 min 0 min 0 W/m 0,0 km/h (0 Bft) 95,74 %
16.02.2016 01:38 -3,4 C -5,0 C -5,0 C 91 % 0 lf 1031,9 hPa 0,0 l/m 0 min 0 min 0 W/m 0,0 km/h (0 Bft) 100,00 %
16.02.2016 01:40 -3,4 C -4,4 C -5,0 C 91 % 0 lf 1031,9 hPa 0,0 l/m 0 min 0 min 0 W/m 0,0 km/h (0 Bft) 97,87 %
16.02.2016 01:42 -3,4 C -4,4 C -5,0 C 91 % 0 lf 1032,0 hPa 0,0 l/m 0 min 0 min 0 W/m 0,0 km/h (0 Bft) 100,00 %
16.02.2016 01:44 -3,4 C -4,4 C -5,0 C 91 % 0 lf 1032,0 hPa 0,0 l/m 0 min 0 min 0 W/m 2,1 km/h (1 Bft) 95,74 %
16.02.2016 01:46 -3,4 C -3,9 C -5,0 C 91 % 0 lf 1032,0 hPa 0,0 l/m 0 min 0 min 0 W/m 0,0 km/h (0 Bft) 97,87 %
16.02.2016 01:48 -3,5 C -3,9 C -4,4 C 91 % 0 lf 1032,0 hPa 0,0 l/m 0 min 0 min 0 W/m 0,0 km/h (0 Bft) 97,87 %
16.02.2016 01:50 -3,5 C -3,3 C -4,4 C 91 % 0 lf 1032,0 hPa 0,0 l/m 0 min 0 min 0 W/m 0,0 km/h (0 Bft) 100,00 %
16.02.2016 01:52 -3,5 C -3,3 C -4,4 C 91 % 0 lf 1032,0 hPa 0,0 l/m 0 min 0 min 0 W/m 0,0 km/h (0 Bft) 97,87 %
16.02.2016 01:54 -3,5 C -3,3 C -4,4 C 91 % 0 lf 1032,1 hPa 0,0 l/m 0 min 0 min 0 W/m 0,0 km/h (0 Bft) 100,00 %
16.02.2016 01:56 -3,5 C -3,3 C -4,4 C 91 % 0 lf 1032,1 hPa 0,0 l/m 0 min 0 min 0 W/m 0,0 km/h (0 Bft) 100,00 %
16.02.2016 01:58 -3,5 C -3,3 C -4,4 C 91 % 0 lf 1032,1 hPa 0,0 l/m 0 min 0 min 0 W/m 0,0 km/h (0 Bft) 97,87 %
16.02.2016 02:00 -3,5 C -3,3 C -3,9 C 91 % 0 lf 1032,1 hPa 0,0 l/m 0 min 0 min 0 W/m 0,0 km/h (0 Bft) 100,00 %
16.02.2016 02:02 -3,5 C -3,3 C -3,9 C 91 % 0 lf 1032,2 hPa 0,0 l/m 0 min 0 min 0 W/m 0,0 km/h (0 Bft) 95,65 %
16.02.2016 02:04 -3,5 C -3,3 C -3,9 C 91 % 0 lf 1032,2 hPa 0,0 l/m 0 min 0 min 0 W/m 0,0 km/h (0 Bft) 100,00 %
16.02.2016 02:06 -3,5 C -3,3 C -3,9 C 91 % 0 lf 1032,3 hPa 0,0 l/m 0 min 0 min 0 W/m 0,0 km/h (0 Bft) 100,00 %
16.02.2016 02:08 -3,5 C -3,3 C -3,9 C 92 % 0 lf 1032,3 hPa 0,0 l/m 0 min 0 min 0 W/m 0,0 km/h (0 Bft) 100,00 %
16.02.2016 02:10 -3,4 C -3,3 C -3,9 C 92 % 0 lf 1032,3 hPa 0,0 l/m 0 min 0 min 0 W/m 0,0 km/h (0 Bft) 100,00 %
16.02.2016 02:12 -3,4 C -3,3 C -3,9 C 92 % 0 lf 1032,3 hPa 0,0 l/m 0 min 0 min 0 W/m 0,0 km/h (0 Bft) 97,87 %
16.02.2016 02:14 -3,4 C -3,3 C -3,9 C 92 % 0 lf 1032,3 hPa 0,0 l/m 0 min 0 min 0 W/m 0,0 km/h (0 Bft) 95,65 %
16.02.2016 02:16 -3,4 C -3,3 C -3,9 C 92 % 0 lf 1032,4 hPa 0,0 l/m 0 min 0 min 0 W/m 2,1 km/h (1 Bft) 95,74 %
16.02.2016 02:18 -3,4 C -3,3 C -3,9 C 92 % 0 lf 1032,4 hPa 0,0 l/m 0 min 0 min 0 W/m 2,1 km/h (1 Bft) 97,87 %
16.02.2016 02:20 -3,4 C -2,8 C -3,9 C 92 % 0 lf 1032,4 hPa 0,0 l/m 0 min 0 min 0 W/m 2,1 km/h (1 Bft) 95,74 %
16.02.2016 02:22 -3,4 C -2,8 C -3,9 C 92 % 0 lf 1032,4 hPa 0,0 l/m 0 min 0 min 0 W/m 4,2 km/h (1 Bft) 97,87 %
16.02.2016 02:24 -3,3 C -2,8 C -3,9 C 92 % 0 lf 1032,4 hPa 0,0 l/m 0 min 0 min 0 W/m 2,1 km/h (1 Bft) 97,83 %
16.02.2016 02:26 -3,3 C -2,8 C -3,9 C 92 % 0 lf 1032,4 hPa 0,0 l/m 0 min 0 min 0 W/m 0,0 km/h (0 Bft) 95,74 %
16.02.2016 02:28 -3,3 C -2,8 C -3,9 C 92 % 0 lf 1032,4 hPa 0,0 l/m 0 min 0 min 0 W/m 2,1 km/h (1 Bft) 97,87 %
16.02.2016 02:30 -3,3 C -2,8 C -3,9 C 92 % 0 lf 1032,4 hPa 0,0 l/m 0 min 0 min 0 W/m 0,0 km/h (0 Bft) 91,49 %
16.02.2016 02:33 -3,2 C -2,8 C -3,9 C 92 % 0 lf 1032,3 hPa 0,0 l/m 0 min 0 min 0 W/m 2,1 km/h (1 Bft) 96,34 %
16.02.2016 02:34 -3,2 C -2,8 C -3,9 C 93 % 0 lf 1032,3 hPa 0,0 l/m 0 min 0 min 0 W/m 0,0 km/h (0 Bft) 83,33 %
16.02.2016 02:36 -3,2 C -2,8 C -3,9 C 93 % 0 lf 1032,4 hPa 0,0 l/m 0 min 0 min 0 W/m 0,0 km/h (0 Bft) 95,65 %
16.02.2016 02:38 -3,2 C -3,3 C -3,9 C 93 % 0 lf 1032,3 hPa 0,0 l/m 0 min 0 min 0 W/m 0,0 km/h (0 Bft) 93,62 %
16.02.2016 02:40 -3,2 C -3,3 C -3,9 C 93 % 0 lf 1032,3 hPa 0,0 l/m 0 min 0 min 0 W/m 0,0 km/h (0 Bft) 91,49 %
16.02.2016 02:43 -3,1 C -3,3 C -3,9 C 93 % 0 lf 1032,4 hPa 0,0 l/m 0 min 0 min 0 W/m 2,1 km/h (1 Bft) 92,68 %
16.02.2016 02:44 -3,1 C -3,3 C -3,9 C 93 % 0 lf 1032,4 hPa 0,0 l/m 0 min 0 min 0 W/m 2,1 km/h (1 Bft) 100,00 %
16.02.2016 02:46 -3,1 C -2,8 C -3,9 C 93 % 0 lf 1032,4 hPa 0,0 l/m 0 min 0 min 0 W/m 2,1 km/h (1 Bft) 93,62 %
16.02.2016 02:48 -3,1 C -2,8 C -3,9 C 93 % 0 lf 1032,4 hPa 0,0 l/m 0 min 0 min 0 W/m 0,0 km/h (0 Bft) 91,30 %
16.02.2016 02:50 -3,1 C -3,3 C -3,9 C 93 % 0 lf 1032,4 hPa 0,0 l/m 0 min 0 min 0 W/m 0,0 km/h (0 Bft) 93,62 %
16.02.2016 02:53 -3,0 C -2,8 C -3,3 C 93 % 0 lf 1032,4 hPa 0,0 l/m 0 min 0 min 0 W/m 2,1 km/h (1 Bft) 91,46 %
16.02.2016 02:54 -3,0 C -2,8 C -3,3 C 93 % 0 lf 1032,4 hPa 0,0 l/m 0 min 0 min 0 W/m 2,1 km/h (1 Bft) 100,00 %
16.02.2016 02:56 -3,0 C -2,8 C -3,3 C 93 % 0 lf 1032,4 hPa 0,0 l/m 0 min 0 min 0 W/m 4,2 km/h (1 Bft) 93,62 %
16.02.2016 02:58 -2,9 C -2,8 C -3,3 C 93 % 0 lf 1032,4 hPa 0,0 l/m 0 min 0 min 0 W/m 4,2 km/h (1 Bft) 91,49 %
16.02.2016 03:00 -2,9 C -2,8 C -3,3 C 93 % 0 lf 1032,3 hPa 0,0 l/m 0 min 0 min 0 W/m 4,2 km/h (1 Bft) 91,30 %
16.02.2016 03:03 -2,9 C -2,8 C -3,3 C 93 % 0 lf 1032,4 hPa 0,0 l/m 0 min 0 min 0 W/m 0,0 km/h (0 Bft) 92,68 %
16.02.2016 03:04 -2,9 C -3,3 C -3,3 C 93 % 0 lf 1032,4 hPa 0,0 l/m 0 min 0 min 0 W/m 0,0 km/h (0 Bft) 91,67 %
16.02.2016 03:06 -2,9 C -3,3 C -3,9 C 93 % 0 lf 1032,4 hPa 0,0 l/m 0 min 0 min 0 W/m 2,1 km/h (1 Bft) 91,49 %
16.02.2016 03:08 -2,9 C -2,8 C -3,9 C 93 % 0 lf 1032,3 hPa 0,0 l/m 0 min 0 min 0 W/m 0,0 km/h (0 Bft) 91,49 %
16.02.2016 03:10 -2,8 C -2,8 C -3,9 C 93 % 0 lf 1032,4 hPa 0,0 l/m 0 min 0 min 0 W/m 0,0 km/h (0 Bft) 95,74 %
16.02.2016 03:13 -2,8 C -3,3 C -3,9 C 93 % 0 lf 1032,5 hPa 0,0 l/m 0 min 0 min 0 W/m 0,0 km/h (0 Bft) 96,34 %
16.02.2016 03:14 -2,8 C -3,3 C -3,9 C 93 % 0 lf 1032,5 hPa 0,0 l/m 0 min 0 min 0 W/m 0,0 km/h (0 Bft) 100,00 %
16.02.2016 03:16 -2,8 C -3,3 C -3,3 C 93 % 0 lf 1032,4 hPa 0,0 l/m 0 min 0 min 0 W/m 0,0 km/h (0 Bft) 95,74 %
16.02.2016 03:18 -2,8 C -2,8 C -3,3 C 93 % 0 lf 1032,4 hPa 0,0 l/m 0 min 0 min 0 W/m 0,0 km/h (0 Bft) 95,74 %
16.02.2016 03:20 -2,8 C -3,3 C -3,3 C 93 % 0 lf 1032,4 hPa 0,0 l/m 0 min 0 min 0 W/m 0,0 km/h (0 Bft) 100,00 %
16.02.2016 03:23 -2,8 C -3,3 C -3,9 C 93 % 0 lf 1032,4 hPa 0,0 l/m 0 min 0 min 0 W/m 2,1 km/h (1 Bft) 98,78 %
16.02.2016 03:24 -2,8 C -3,3 C -3,9 C 93 % 0 lf 1032,4 hPa 0,0 l/m 0 min 0 min 0 W/m 4,2 km/h (1 Bft) 90,91 %
16.02.2016 03:26 -2,8 C -3,3 C -3,9 C 93 % 0 lf 1032,4 hPa 0,0 l/m 0 min 0 min 0 W/m 4,2 km/h (1 Bft) 95,74 %
16.02.2016 03:28 -2,7 C -3,3 C -3,9 C 93 % 0 lf 1032,4 hPa 0,0 l/m 0 min 0 min 0 W/m 4,2 km/h (1 Bft) 97,87 %
16.02.2016 03:30 -2,7 C -3,9 C -3,9 C 93 % 0 lf 1032,4 hPa 0,0 l/m 0 min 0 min 0 W/m 2,1 km/h (1 Bft) 97,87 %
16.02.2016 03:33 -2,7 C -3,3 C -3,9 C 94 % 0 lf 1032,4 hPa 0,0 l/m 0 min 0 min 0 W/m 0,0 km/h (0 Bft) 95,12 %
16.02.2016 03:34 -2,7 C -3,3 C -3,9 C 94 % 0 lf 1032,4 hPa 0,0 l/m 0 min 0 min 0 W/m 0,0 km/h (0 Bft) 100,00 %
16.02.2016 03:38 -2,7 C -3,3 C -3,9 C 94 % 0 lf 1032,4 hPa 0,0 l/m 0 min 0 min 0 W/m 0,0 km/h (0 Bft) 95,74 %
16.02.2016 03:40 -2,7 C -2,8 C -3,9 C 94 % 0 lf 1032,3 hPa 0,0 l/m 0 min 0 min 0 W/m 0,0 km/h (0 Bft) 95,74 %
16.02.2016 03:42 -2,7 C -2,8 C -3,9 C 94 % 0 lf 1032,4 hPa 0,0 l/m 0 min 0 min 0 W/m 0,0 km/h (0 Bft) 89,36 %
16.02.2016 03:44 -2,7 C -2,8 C -3,9 C 94 % 0 lf 1032,3 hPa 0,0 l/m 0 min 0 min 0 W/m 0,0 km/h (0 Bft) 95,74 %
16.02.2016 03:46 -2,7 C -2,8 C -3,9 C 94 % 0 lf 1032,3 hPa 0,0 l/m 0 min 0 min 0 W/m 0,0 km/h (0 Bft) 97,87 %
16.02.2016 03:48 -2,7 C -2,8 C -3,9 C 94 % 0 lf 1032,4 hPa 0,0 l/m 0 min 0 min 0 W/m 0,0 km/h (0 Bft) 97,83 %
16.02.2016 03:50 -2,7 C -3,3 C -3,9 C 94 % 0 lf 1032,4 hPa 0,0 l/m 0 min 0 min 0 W/m 0,0 km/h (0 Bft) 97,87 %
16.02.2016 03:52 -2,7 C -3,3 C -3,9 C 94 % 0 lf 1032,4 hPa 0,0 l/m 0 min 0 min 0 W/m 0,0 km/h (0 Bft) 97,87 %
16.02.2016 03:54 -2,7 C -3,3 C -3,9 C 94 % 0 lf 1032,4 hPa 0,0 l/m 0 min 0 min 0 W/m 0,0 km/h (0 Bft) 97,87 %
16.02.2016 03:56 -2,7 C -3,3 C -3,9 C 94 % 0 lf 1032,4 hPa 0,0 l/m 0 min 0 min 0 W/m 0,0 km/h (0 Bft) 93,62 %
16.02.2016 03:58 -2,7 C -3,9 C -3,9 C 94 % 0 lf 1032,3 hPa 0,0 l/m 0 min 0 min 0 W/m 0,0 km/h (0 Bft) 93,48 %
16.02.2016 04:00 -2,8 C -3,9 C -3,9 C 94 % 0 lf 1032,3 hPa 0,0 l/m 0 min 0 min 0 W/m 0,0 km/h (0 Bft) 95,74 %
16.02.2016 04:02 -2,8 C -3,9 C -3,9 C 94 % 0 lf 1032,3 hPa 0,0 l/m 0 min 0 min 0 W/m 0,0 km/h (0 Bft) 100,00 %
16.02.2016 04:04 -2,8 C -3,9 C -4,4 C 94 % 0 lf 1032,4 hPa 0,0 l/m 0 min 0 min 0 W/m 0,0 km/h (0 Bft) 91,49 %
16.02.2016 04:06 -2,8 C -3,9 C -4,4 C 94 % 0 lf 1032,4 hPa 0,0 l/m 0 min 0 min 0 W/m 0,0 km/h (0 Bft) 95,74 %
16.02.2016 04:08 -2,8 C -3,3 C -4,4 C 94 % 0 lf 1032,4 hPa 0,0 l/m 0 min 0 min 0 W/m 0,0 km/h (0 Bft) 97,87 %
16.02.2016 04:10 -2,8 C -3,3 C -4,4 C 94 % 0 lf 1032,5 hPa 0,0 l/m 0 min 0 min 0 W/m 0,0 km/h (0 Bft) 95,65 %
16.02.2016 04:12 -2,8 C -3,9 C -4,4 C 94 % 0 lf 1032,5 hPa 0,0 l/m 0 min 0 min 0 W/m 0,0 km/h (0 Bft) 95,74 %
16.02.2016 04:14 -2,8 C -3,9 C -4,4 C 94 % 0 lf 1032,5 hPa 0,0 l/m 0 min 0 min 0 W/m 0,0 km/h (0 Bft) 95,74 %
16.02.2016 04:16 -2,8 C -4,4 C -4,4 C 94 % 0 lf 1032,5 hPa 0,0 l/m 0 min 0 min 0 W/m 0,0 km/h (0 Bft) 97,87 %
16.02.2016 04:18 -2,8 C -4,4 C -4,4 C 94 % 0 lf 1032,6 hPa 0,0 l/m 0 min 0 min 0 W/m 0,0 km/h (0 Bft) 95,74 %
16.02.2016 04:20 -2,8 C -4,4 C -4,4 C 94 % 0 lf 1032,6 hPa 0,0 l/m 0 min 0 min 0 W/m 0,0 km/h (0 Bft) 97,87 %
16.02.2016 04:22 -2,8 C -4,4 C -4,4 C 94 % 0 lf 1032,6 hPa 0,0 l/m 0 min 0 min 0 W/m 0,0 km/h (0 Bft) 97,83 %
16.02.2016 04:24 -2,8 C -4,4 C -5,0 C 94 % 0 lf 1032,6 hPa 0,0 l/m 0 min 0 min 0 W/m 0,0 km/h (0 Bft) 97,87 %
16.02.2016 04:26 -2,9 C -4,4 C -5,0 C 94 % 0 lf 1032,6 hPa 0,0 l/m 0 min 0 min 0 W/m 0,0 km/h (0 Bft) 95,74 %
16.02.2016 04:28 -2,9 C -4,4 C -5,0 C 94 % 0 lf 1032,5 hPa 0,0 l/m 0 min 0 min 0 W/m 0,0 km/h (0 Bft) 93,62 %
16.02.2016 04:30 -2,9 C -4,4 C -5,0 C 94 % 0 lf 1032,5 hPa 0,0 l/m 0 min 0 min 0 W/m 0,0 km/h (0 Bft) 93,62 %
16.02.2016 04:32 -2,9 C -4,4 C -5,0 C 94 % 0 lf 1032,5 hPa 0,0 l/m 0 min 0 min 0 W/m 0,0 km/h (0 Bft) 93,62 %
16.02.2016 04:34 -3,0 C -4,4 C -5,0 C 94 % 0 lf 1032,5 hPa 0,0 l/m 0 min 0 min 0 W/m 0,0 km/h (0 Bft) 93,48 %
16.02.2016 04:36 -3,0 C -5,0 C -5,0 C 94 % 0 lf 1032,5 hPa 0,0 l/m 0 min 0 min 0 W/m 0,0 km/h (0 Bft) 93,62 %
16.02.2016 04:38 -3,1 C -5,0 C -5,0 C 94 % 0 lf 1032,6 hPa 0,0 l/m 0 min 0 min 0 W/m 0,0 km/h (0 Bft) 95,74 %
16.02.2016 04:40 -3,1 C -5,0 C -5,0 C 94 % 0 lf 1032,5 hPa 0,0 l/m 0 min 0 min 0 W/m 0,0 km/h (0 Bft) 93,62 %
16.02.2016 04:42 -3,1 C -5,0 C -5,0 C 94 % 0 lf 1032,6 hPa 0,0 l/m 0 min 0 min 0 W/m 0,0 km/h (0 Bft) 93,62 %
16.02.2016 04:44 -3,1 C -5,0 C -5,0 C 94 % 0 lf 1032,7 hPa 0,0 l/m 0 min 0 min 0 W/m 0,0 km/h (0 Bft) 95,74 %
16.02.2016 04:46 -3,2 C -5,0 C -5,0 C 94 % 0 lf 1032,7 hPa 0,0 l/m 0 min 0 min 0 W/m 0,0 km/h (0 Bft) 91,30 %
16.02.2016 04:48 -3,2 C -5,0 C -5,0 C 94 % 0 lf 1032,9 hPa 0,0 l/m 0 min 0 min 0 W/m 0,0 km/h (0 Bft) 91,49 %
16.02.2016 04:50 -3,2 C -5,0 C -5,0 C 94 % 0 lf 1032,9 hPa 0,0 l/m 0 min 0 min 0 W/m 0,0 km/h (0 Bft) 93,62 %
16.02.2016 04:52 -3,2 C -5,0 C -5,0 C 94 % 0 lf 1032,9 hPa 0,0 l/m 0 min 0 min 0 W/m 0,0 km/h (0 Bft) 97,87 %
16.02.2016 04:54 -3,3 C -5,0 C -5,0 C 94 % 0 lf 1032,9 hPa 0,0 l/m 0 min 0 min 0 W/m 0,0 km/h (0 Bft) 91,49 %
16.02.2016 04:56 -3,3 C -5,0 C -5,0 C 94 % 0 lf 1032,9 hPa 0,0 l/m 0 min 0 min 0 W/m 0,0 km/h (0 Bft) 93,48 %
16.02.2016 04:58 -3,3 C -4,4 C -5,0 C 94 % 0 lf 1032,9 hPa 0,0 l/m 0 min 0 min 0 W/m 0,0 km/h (0 Bft) 97,87 %
16.02.2016 05:00 -3,3 C -3,9 C -5,0 C 94 % 0 lf 1032,9 hPa 0,0 l/m 0 min 0 min 0 W/m 0,0 km/h (0 Bft) 100,00 %
16.02.2016 05:02 -3,4 C -3,9 C -5,0 C 94 % 0 lf 1032,9 hPa 0,0 l/m 0 min 0 min 0 W/m 0,0 km/h (0 Bft) 93,62 %
16.02.2016 05:04 -3,4 C -4,4 C -5,0 C 94 % 0 lf 1032,9 hPa 0,0 l/m 0 min 0 min 0 W/m 0,0 km/h (0 Bft) 97,87 %
16.02.2016 05:06 -3,4 C -5,0 C -5,0 C 94 % 0 lf 1032,9 hPa 0,0 l/m 0 min 0 min 0 W/m 0,0 km/h (0 Bft) 95,74 %
16.02.2016 05:08 -3,4 C -4,4 C -5,0 C 94 % 0 lf 1032,9 hPa 0,0 l/m 0 min 0 min 0 W/m 0,0 km/h (0 Bft) 91,30 %
16.02.2016 05:10 -3,5 C -4,4 C -5,0 C 94 % 0 lf 1032,9 hPa 0,0 l/m 0 min 0 min 0 W/m 0,0 km/h (0 Bft) 95,74 %
16.02.2016 05:12 -3,5 C -4,4 C -5,0 C 94 % 0 lf 1033,0 hPa 0,0 l/m 0 min 0 min 0 W/m 0,0 km/h (0 Bft) 95,74 %
16.02.2016 05:14 -3,5 C -4,4 C -5,0 C 94 % 0 lf 1032,9 hPa 0,0 l/m 0 min 0 min 0 W/m 0,0 km/h (0 Bft) 95,74 %
16.02.2016 05:16 -3,6 C -5,0 C -5,6 C 94 % 0 lf 1033,0 hPa 0,0 l/m 0 min 0 min 0 W/m 0,0 km/h (0 Bft) 91,49 %
16.02.2016 05:18 -3,6 C -5,0 C -5,6 C 94 % 0 lf 1033,0 hPa 0,0 l/m 0 min 0 min 0 W/m 0,0 km/h (0 Bft) 95,74 %
16.02.2016 05:20 -3,6 C -5,0 C -5,6 C 94 % 0 lf 1033,1 hPa 0,0 l/m 0 min 0 min 0 W/m 0,0 km/h (0 Bft) 97,83 %
16.02.2016 05:22 -3,6 C -5,0 C -5,6 C 94 % 0 lf 1033,2 hPa 0,0 l/m 0 min 0 min 0 W/m 0,0 km/h (0 Bft) 97,87 %
16.02.2016 05:24 -3,6 C -5,0 C -5,6 C 94 % 0 lf 1033,2 hPa 0,0 l/m 0 min 0 min 0 W/m 0,0 km/h (0 Bft) 93,62 %
16.02.2016 05:26 -3,7 C -5,0 C -5,6 C 94 % 0 lf 1033,2 hPa 0,0 l/m 0 min 0 min 0 W/m 0,0 km/h (0 Bft) 93,62 %
16.02.2016 05:28 -3,7 C -5,0 C -5,6 C 94 % 0 lf 1033,2 hPa 0,0 l/m 0 min 0 min 0 W/m 2,1 km/h (1 Bft) 93,62 %
16.02.2016 05:30 -3,7 C -5,0 C -5,6 C 94 % 0 lf 1033,2 hPa 0,0 l/m 0 min 0 min 0 W/m 0,0 km/h (0 Bft) 93,62 %
16.02.2016 05:32 -3,7 C -4,4 C -5,6 C 94 % 0 lf 1033,3 hPa 0,0 l/m 0 min 0 min 0 W/m 0,0 km/h (0 Bft) 91,30 %
16.02.2016 05:34 -3,8 C -4,4 C -5,6 C 94 % 0 lf 1033,3 hPa 0,0 l/m 0 min 0 min 0 W/m 0,0 km/h (0 Bft) 93,62 %
16.02.2016 05:36 -3,8 C -4,4 C -5,6 C 94 % 0 lf 1033,4 hPa 0,0 l/m 0 min 0 min 0 W/m 0,0 km/h (0 Bft) 93,62 %
16.02.2016 05:38 -3,8 C -4,4 C -5,6 C 94 % 0 lf 1033,4 hPa 0,0 l/m 0 min 0 min 0 W/m 0,0 km/h (0 Bft) 91,49 %
16.02.2016 05:40 -3,8 C -4,4 C -5,6 C 94 % 0 lf 1033,5 hPa 0,0 l/m 0 min 0 min 0 W/m 0,0 km/h (0 Bft) 91,49 %
16.02.2016 05:42 -3,8 C -4,4 C -5,6 C 94 % 0 lf 1033,5 hPa 0,0 l/m 0 min 0 min 0 W/m 0,0 km/h (0 Bft) 95,65 %
16.02.2016 05:44 -3,8 C -5,0 C -5,6 C 94 % 0 lf 1033,5 hPa 0,0 l/m 0 min 0 min 0 W/m 0,0 km/h (0 Bft) 97,87 %
16.02.2016 05:46 -3,9 C -5,0 C -5,6 C 94 % 0 lf 1033,5 hPa 0,0 l/m 0 min 0 min 0 W/m 0,0 km/h (0 Bft) 97,87 %
16.02.2016 05:48 -3,9 C -5,0 C -5,6 C 94 % 0 lf 1033,6 hPa 0,0 l/m 0 min 0 min 0 W/m 0,0 km/h (0 Bft) 97,87 %
16.02.2016 05:50 -3,9 C -5,0 C -5,6 C 94 % 0 lf 1033,6 hPa 0,0 l/m 0 min 0 min 0 W/m 0,0 km/h (0 Bft) 97,87 %
16.02.2016 05:52 -3,9 C -5,6 C -5,6 C 94 % 0 lf 1033,6 hPa 0,0 l/m 0 min 0 min 0 W/m 0,0 km/h (0 Bft) 97,87 %
16.02.2016 05:54 -3,9 C -5,6 C -5,6 C 94 % 0 lf 1033,6 hPa 0,0 l/m 0 min 0 min 0 W/m 0,0 km/h (0 Bft) 97,83 %
16.02.2016 05:56 -3,9 C -5,6 C -5,6 C 94 % 0 lf 1033,6 hPa 0,0 l/m 0 min 0 min 0 W/m 2,1 km/h (1 Bft) 95,74 %
16.02.2016 05:58 -4,0 C -5,6 C -5,6 C 94 % 0 lf 1033,7 hPa 0,0 l/m 0 min 0 min 0 W/m 4,2 km/h (1 Bft) 95,74 %
16.02.2016 06:00 -4,0 C -5,6 C -5,6 C 94 % 0 lf 1033,7 hPa 0,0 l/m 0 min 0 min 0 W/m 2,1 km/h (1 Bft) 97,87 %
16.02.2016 06:02 -4,0 C -5,6 C -5,6 C 94 % 0 lf 1033,7 hPa 0,0 l/m 0 min 0 min 0 W/m 2,1 km/h (1 Bft) 97,87 %
16.02.2016 06:04 -4,1 C -5,6 C -5,6 C 94 % 0 lf 1033,7 hPa 0,0 l/m 0 min 0 min 0 W/m 2,1 km/h (1 Bft) 95,74 %
16.02.2016 06:06 -4,1 C -5,6 C -5,6 C 94 % 0 lf 1033,8 hPa 0,0 l/m 0 min 0 min 0 W/m 0,0 km/h (0 Bft) 97,83 %
16.02.2016 06:08 -4,1 C -5,6 C -5,6 C 94 % 0 lf 1033,8 hPa 0,0 l/m 0 min 0 min 0 W/m 0,0 km/h (0 Bft) 97,87 %
16.02.2016 06:10 -4,1 C -5,6 C -5,6 C 94 % 0 lf 1033,8 hPa 0,0 l/m 0 min 0 min 0 W/m 0,0 km/h (0 Bft) 95,74 %
16.02.2016 06:12 -4,1 C -5,6 C -5,6 C 94 % 0 lf 1033,8 hPa 0,0 l/m 0 min 0 min 0 W/m 0,0 km/h (0 Bft) 95,74 %
16.02.2016 06:14 -4,1 C -5,6 C -5,6 C 94 % 0 lf 1033,8 hPa 0,0 l/m 0 min 0 min 0 W/m 0,0 km/h (0 Bft) 95,74 %
16.02.2016 06:16 -4,1 C -5,6 C -5,6 C 94 % 0 lf 1033,9 hPa 0,0 l/m 0 min 0 min 0 W/m 0,0 km/h (0 Bft) 93,62 %
16.02.2016 06:18 -4,1 C -5,6 C -5,6 C 94 % 0 lf 1033,8 hPa 0,0 l/m 0 min 0 min 0 W/m 0,0 km/h (0 Bft) 93,48 %
16.02.2016 06:20 -4,2 C -5,6 C -5,6 C 94 % 0 lf 1033,8 hPa 0,0 l/m 0 min 0 min 0 W/m 2,1 km/h (1 Bft) 95,74 %
16.02.2016 06:22 -4,2 C -5,6 C -5,6 C 94 % 0 lf 1033,8 hPa 0,0 l/m 0 min 0 min 0 W/m 2,1 km/h (1 Bft) 93,62 %
16.02.2016 06:24 -4,2 C -5,6 C -5,6 C 94 % 0 lf 1033,8 hPa 0,0 l/m 0 min 0 min 0 W/m 2,1 km/h (1 Bft) 95,74 %
16.02.2016 06:26 -4,2 C -5,6 C -5,6 C 94 % 0 lf 1033,8 hPa 0,0 l/m 0 min 0 min 0 W/m 2,1 km/h (1 Bft) 95,74 %
16.02.2016 06:28 -4,2 C -5,6 C -5,6 C 94 % 0 lf 1033,8 hPa 0,0 l/m 0 min 0 min 0 W/m 0,0 km/h (0 Bft) 97,87 %
16.02.2016 06:30 -4,2 C -5,6 C -5,6 C 94 % 0 lf 1033,8 hPa 0,0 l/m 0 min 0 min 0 W/m 0,0 km/h (0 Bft) 95,65 %
16.02.2016 06:32 -4,2 C -5,6 C -5,6 C 94 % 0 lf 1033,8 hPa 0,0 l/m 0 min 0 min 0 W/m 0,0 km/h (0 Bft) 97,87 %
16.02.2016 06:34 -4,2 C -5,6 C -5,6 C 94 % 0 lf 1033,8 hPa 0,0 l/m 0 min 0 min 0 W/m 0,0 km/h (0 Bft) 93,62 %
16.02.2016 06:36 -4,2 C -5,6 C -5,6 C 94 % 0 lf 1033,9 hPa 0,0 l/m 0 min 0 min 0 W/m 0,0 km/h (0 Bft) 95,74 %
16.02.2016 06:38 -4,2 C -5,6 C -5,6 C 94 % 0 lf 1034,0 hPa 0,0 l/m 0 min 0 min 0 W/m 0,0 km/h (0 Bft) 97,87 %
16.02.2016 06:40 -4,3 C -5,6 C -5,6 C 94 % 0 lf 1033,9 hPa 0,0 l/m 0 min 0 min 0 W/m 0,0 km/h (0 Bft) 95,74 %
16.02.2016 06:42 -4,3 C -5,6 C -5,6 C 94 % 0 lf 1033,9 hPa 0,0 l/m 0 min 0 min 0 W/m 0,0 km/h (0 Bft) 97,83 %
16.02.2016 06:44 -4,3 C -5,6 C -5,6 C 94 % 0 lf 1033,9 hPa 0,0 l/m 0 min 0 min 0 W/m 0,0 km/h (0 Bft) 95,74 %
16.02.2016 06:46 -4,3 C -5,6 C -5,6 C 94 % 0 lf 1034,0 hPa 0,0 l/m 0 min 0 min 0 W/m 0,0 km/h (0 Bft) 100,00 %
16.02.2016 06:48 -4,3 C -5,6 C -5,6 C 94 % 0 lf 1034,1 hPa 0,0 l/m 0 min 0 min 0 W/m 0,0 km/h (0 Bft) 97,87 %
16.02.2016 06:50 -4,3 C -5,6 C -5,6 C 94 % 0 lf 1034,1 hPa 0,0 l/m 0 min 0 min 0 W/m 0,0 km/h (0 Bft) 97,87 %
16.02.2016 06:52 -4,3 C -5,6 C -5,6 C 94 % 0 lf 1034,1 hPa 0,0 l/m 0 min 0 min 0 W/m 2,1 km/h (1 Bft) 100,00 %
16.02.2016 06:54 -4,3 C -5,6 C -5,6 C 94 % 0 lf 1034,2 hPa 0,0 l/m 0 min 0 min 0 W/m 4,2 km/h (1 Bft) 97,87 %
16.02.2016 06:56 -4,3 C -5,6 C -5,6 C 94 % 0 lf 1034,1 hPa 0,0 l/m 0 min 0 min 0 W/m 4,2 km/h (1 Bft) 97,87 %
16.02.2016 06:58 -4,3 C -5,6 C -5,6 C 94 % 0 lf 1034,2 hPa 0,0 l/m 0 min 0 min 0 W/m 0,0 km/h (0 Bft) 100,00 %
16.02.2016 07:00 -4,3 C -5,6 C -5,6 C 94 % 0 lf 1034,2 hPa 0,0 l/m 0 min 0 min 0 W/m 2,1 km/h (1 Bft) 93,62 %
16.02.2016 07:02 -4,3 C -5,6 C -5,6 C 94 % 0 lf 1034,2 hPa 0,0 l/m 0 min 0 min 0 W/m 2,1 km/h (1 Bft) 100,00 %
16.02.2016 07:04 -4,3 C -5,6 C -6,1 C 94 % 0 lf 1034,2 hPa 0,0 l/m 0 min 0 min 0 W/m 2,1 km/h (1 Bft) 100,00 %
16.02.2016 07:06 -4,3 C -5,6 C -6,1 C 94 % 0 lf 1034,2 hPa 0,0 l/m 0 min 0 min 0 W/m 0,0 km/h (0 Bft) 100,00 %
16.02.2016 07:08 -4,3 C -5,6 C -6,1 C 94 % 0 lf 1034,2 hPa 0,0 l/m 0 min 0 min 0 W/m 0,0 km/h (0 Bft) 100,00 %
16.02.2016 07:10 -4,3 C -5,6 C -6,1 C 94 % 0 lf 1034,3 hPa 0,0 l/m 0 min 0 min 0 W/m 0,0 km/h (0 Bft) 100,00 %
16.02.2016 07:12 -4,3 C -5,6 C -6,1 C 94 % 0 lf 1034,3 hPa 0,0 l/m 0 min 0 min 0 W/m 0,0 km/h (0 Bft) 100,00 %
16.02.2016 07:14 -4,4 C -6,1 C -6,1 C 94 % 0 lf 1034,4 hPa 0,0 l/m 0 min 0 min 0 W/m 0,0 km/h (0 Bft) 95,65 %
16.02.2016 07:16 -4,4 C -6,1 C -6,1 C 94 % 0 lf 1034,4 hPa 0,0 l/m 0 min 0 min 0 W/m 0,0 km/h (0 Bft) 100,00 %
16.02.2016 07:18 -4,4 C -5,6 C -6,1 C 94 % 0 lf 1034,4 hPa 0,0 l/m 0 min 0 min 0 W/m 0,0 km/h (0 Bft) 97,87 %
16.02.2016 07:20 -4,4 C -5,0 C -6,1 C 94 % 0 lf 1034,5 hPa 0,0 l/m 0 min 0 min 0 W/m 0,0 km/h (0 Bft) 97,87 %
16.02.2016 07:22 -4,4 C -5,0 C -6,1 C 94 % 0 lf 1034,5 hPa 0,0 l/m 0 min 0 min 0 W/m 0,0 km/h (0 Bft) 95,74 %
16.02.2016 07:24 -4,4 C -5,0 C -6,1 C 94 % 0 lf 1034,5 hPa 0,0 l/m 0 min 0 min 0 W/m 0,0 km/h (0 Bft) 97,83 %
16.02.2016 07:26 -4,4 C -5,0 C -6,1 C 94 % 0 lf 1034,6 hPa 0,0 l/m 0 min 0 min 0 W/m 0,0 km/h (0 Bft) 97,87 %
16.02.2016 07:28 -4,4 C -5,0 C -6,1 C 94 % 0 lf 1034,6 hPa 0,0 l/m 0 min 0 min 0 W/m 0,0 km/h (0 Bft) 95,74 %
16.02.2016 07:30 -4,4 C -5,0 C -6,1 C 94 % 0 lf 1034,6 hPa 0,0 l/m 0 min 0 min 0 W/m 0,0 km/h (0 Bft) 97,87 %
16.02.2016 07:32 -4,4 C -5,0 C -6,1 C 94 % 0 lf 1034,6 hPa 0,0 l/m 0 min 0 min 0 W/m 0,0 km/h (0 Bft) 95,74 %
16.02.2016 07:34 -4,5 C -5,0 C -6,1 C 94 % 0 lf 1034,6 hPa 0,0 l/m 0 min 0 min 0 W/m 0,0 km/h (0 Bft) 91,49 %
16.02.2016 07:36 -4,5 C -5,0 C -6,1 C 94 % 0 lf 1034,6 hPa 0,0 l/m 0 min 0 min 0 W/m 0,0 km/h (0 Bft) 97,83 %
16.02.2016 07:38 -4,5 C -5,0 C -6,1 C 94 % 0 lf 1034,6 hPa 0,0 l/m 0 min 0 min 3 W/m 0,0 km/h (0 Bft) 97,87 %
16.02.2016 07:40 -4,5 C -5,0 C -6,1 C 94 % 0 lf 1034,6 hPa 0,0 l/m 0 min 0 min 5 W/m 2,1 km/h (1 Bft) 97,87 %
16.02.2016 07:42 -4,5 C -5,0 C -6,1 C 94 % 0 lf 1034,6 hPa 0,0 l/m 0 min 0 min 5 W/m 2,1 km/h (1 Bft) 97,87 %
16.02.2016 07:44 -4,6 C -5,0 C -6,1 C 94 % 0 lf 1034,7 hPa 0,0 l/m 0 min 0 min 5 W/m 2,1 km/h (1 Bft) 95,74 %
16.02.2016 07:46 -4,6 C -5,0 C -6,1 C 94 % 0 lf 1034,6 hPa 0,0 l/m 0 min 0 min 7 W/m 0,0 km/h (0 Bft) 95,74 %
16.02.2016 07:48 -4,6 C -5,6 C -6,1 C 94 % 0 lf 1034,7 hPa 0,0 l/m 0 min 0 min 7 W/m 0,0 km/h (0 Bft) 97,83 %
16.02.2016 07:50 -4,6 C -6,1 C -6,1 C 94 % 0 lf 1034,7 hPa 0,0 l/m 0 min 0 min 8 W/m 0,0 km/h (0 Bft) 93,62 %
16.02.2016 07:52 -4,6 C -6,1 C -6,1 C 94 % 0 lf 1034,8 hPa 0,0 l/m 0 min 0 min 9 W/m 0,0 km/h (0 Bft) 95,74 %
16.02.2016 07:54 -4,6 C -6,1 C -6,1 C 94 % 0 lf 1034,8 hPa 0,0 l/m 0 min 0 min 11 W/m 0,0 km/h (0 Bft) 93,62 %
16.02.2016 07:56 -4,6 C -6,1 C -6,1 C 94 % 0 lf 1034,9 hPa 0,0 l/m 0 min 0 min 11 W/m 0,0 km/h (0 Bft) 93,62 %
16.02.2016 07:58 -4,7 C -6,1 C -6,1 C 94 % 0 lf 1035,0 hPa 0,0 l/m 0 min 0 min 12 W/m 0,0 km/h (0 Bft) 95,74 %
16.02.2016 08:00 -4,7 C -6,1 C -6,1 C 94 % 0 lf 1035,0 hPa 0,0 l/m 0 min 0 min 14 W/m 0,0 km/h (0 Bft) 97,96 %
16.02.2016 08:02 -4,7 C -6,1 C -6,1 C 94 % 0 lf 1035,0 hPa 0,0 l/m 0 min 0 min 14 W/m 0,0 km/h (0 Bft) 95,74 %
16.02.2016 08:04 -4,7 C -6,1 C -6,1 C 94 % 0 lf 1035,0 hPa 0,0 l/m 0 min 0 min 17 W/m 0,0 km/h (0 Bft) 97,87 %
16.02.2016 08:06 -4,7 C -6,1 C -6,1 C 94 % 0 lf 1035,0 hPa 0,0 l/m 2 min 0 min 19 W/m 0,0 km/h (0 Bft) 97,87 %
16.02.2016 08:08 -4,7 C -6,1 C -6,1 C 94 % 0 lf 1035,1 hPa 0,0 l/m 2 min 0 min 20 W/m 0,0 km/h (0 Bft) 95,74 %
16.02.2016 08:10 -4,8 C -6,1 C -5,6 C 94 % 0 lf 1035,1 hPa 0,0 l/m 2 min 0 min 23 W/m 0,0 km/h (0 Bft) 97,83 %
16.02.2016 08:12 -4,8 C -5,6 C -5,6 C 94 % 0 lf 1035,1 hPa 0,0 l/m 2 min 0 min 24 W/m 4,2 km/h (1 Bft) 97,87 %
16.02.2016 08:14 -4,8 C -5,6 C -5,6 C 94 % 0 lf 1035,2 hPa 0,0 l/m 2 min 0 min 26 W/m 4,2 km/h (1 Bft) 95,74 %
16.02.2016 08:16 -4,8 C -5,6 C -5,6 C 94 % 0 lf 1035,3 hPa 0,0 l/m 2 min 0 min 27 W/m 2,1 km/h (1 Bft) 97,87 %
16.02.2016 08:18 -4,8 C -5,6 C -5,6 C 94 % 0 lf 1035,3 hPa 0,0 l/m 2 min 0 min 28 W/m 4,2 km/h (1 Bft) 95,74 %
16.02.2016 08:20 -4,8 C -5,6 C -5,6 C 94 % 0 lf 1035,3 hPa 0,0 l/m 2 min 0 min 30 W/m 2,1 km/h (1 Bft) 97,87 %
16.02.2016 08:22 -4,8 C -5,0 C -5,6 C 94 % 0 lf 1035,4 hPa 0,0 l/m 0 min 0 min 32 W/m 0,0 km/h (0 Bft) 97,83 %
16.02.2016 08:24 -4,8 C -5,0 C -5,6 C 94 % 0 lf 1035,3 hPa 0,0 l/m 0 min 0 min 33 W/m 0,0 km/h (0 Bft) 93,62 %
16.02.2016 08:26 -4,8 C -5,6 C -5,6 C 94 % 0 lf 1035,4 hPa 0,0 l/m 0 min 0 min 35 W/m 0,0 km/h (0 Bft) 95,74 %
16.02.2016 08:28 -4,8 C -5,0 C -5,6 C 94 % 0 lf 1035,4 hPa 0,0 l/m 0 min 0 min 37 W/m 0,0 km/h (0 Bft) 95,74 %
16.02.2016 08:30 -4,7 C -4,4 C -5,6 C 94 % 0 lf 1035,4 hPa 0,0 l/m 2 min 0 min 44 W/m 0,0 km/h (0 Bft) 95,74 %
16.02.2016 08:32 -4,7 C -4,4 C -5,6 C 94 % 0 lf 1035,3 hPa 0,0 l/m 2 min 0 min 56 W/m 0,0 km/h (0 Bft) 97,87 %
16.02.2016 08:34 -4,7 C -4,4 C -5,0 C 94 % 0 lf 1035,3 hPa 0,0 l/m 2 min 0 min 69 W/m 0,0 km/h (0 Bft) 100,00 %
16.02.2016 08:36 -4,7 C -4,4 C -5,0 C 94 % 0 lf 1035,3 hPa 0,0 l/m 2 min 0 min 81 W/m 0,0 km/h (0 Bft) 100,00 %
16.02.2016 08:38 -4,7 C -4,4 C -5,0 C 94 % 0 lf 1035,3 hPa 0,0 l/m 2 min 0 min 90 W/m 0,0 km/h (0 Bft) 93,62 %
16.02.2016 08:40 -4,7 C -4,4 C -5,0 C 94 % 0 lf 1035,3 hPa 0,0 l/m 2 min 0 min 94 W/m 0,0 km/h (0 Bft) 95,74 %
16.02.2016 08:42 -4,6 C -3,9 C -5,0 C 94 % 0 lf 1035,2 hPa 0,0 l/m 2 min 0 min 96 W/m 0,0 km/h (0 Bft) 91,49 %
16.02.2016 08:44 -4,6 C -3,9 C -5,0 C 94 % 0 lf 1035,2 hPa 0,0 l/m 2 min 0 min 97 W/m 0,0 km/h (0 Bft) 91,49 %
16.02.2016 08:46 -4,6 C -3,9 C -5,0 C 94 % 0 lf 1035,2 hPa 0,0 l/m 2 min 0 min 98 W/m 0,0 km/h (0 Bft) 95,65 %
16.02.2016 08:48 -4,6 C -3,9 C -5,0 C 94 % 0 lf 1035,2 hPa 0,0 l/m 2 min 0 min 98 W/m 0,0 km/h (0 Bft) 93,62 %
16.02.2016 08:50 -4,6 C -3,9 C -5,0 C 94 % 0 lf 1035,3 hPa 0,0 l/m 2 min 0 min 100 W/m 0,0 km/h (0 Bft) 95,74 %
16.02.2016 08:52 -4,6 C -3,9 C -5,0 C 95 % 0 lf 1035,3 hPa 0,0 l/m 2 min 0 min 100 W/m 0,0 km/h (0 Bft) 95,74 %
16.02.2016 08:54 -4,5 C -3,9 C -5,0 C 95 % 0 lf 1035,3 hPa 0,0 l/m 2 min 0 min 101 W/m 0,0 km/h (0 Bft) 93,62 %
16.02.2016 08:56 -4,5 C -3,9 C -5,0 C 95 % 0 lf 1035,3 hPa 0,0 l/m 2 min 0 min 104 W/m 0,0 km/h (0 Bft) 93,48 %
16.02.2016 08:58 -4,4 C -3,9 C -4,4 C 95 % 0 lf 1035,3 hPa 0,0 l/m 2 min 0 min 107 W/m 0,0 km/h (0 Bft) 91,49 %
16.02.2016 09:00 -4,4 C -3,9 C -4,4 C 95 % 0 lf 1035,3 hPa 0,0 l/m 2 min 0 min 112 W/m 0,0 km/h (0 Bft) 95,74 %
16.02.2016 09:02 -4,4 C -3,9 C -4,4 C 95 % 0 lf 1035,3 hPa 0,0 l/m 2 min 0 min 116 W/m 0,0 km/h (0 Bft) 91,49 %
16.02.2016 09:04 -4,4 C -3,9 C -4,4 C 95 % 0 lf 1035,4 hPa 0,0 l/m 2 min 0 min 122 W/m 2,1 km/h (1 Bft) 93,62 %
16.02.2016 09:06 -4,4 C -3,9 C -4,4 C 95 % 0 lf 1035,6 hPa 0,0 l/m 2 min 0 min 124 W/m 0,0 km/h (0 Bft) 93,62 %
16.02.2016 09:08 -4,3 C -3,9 C -4,4 C 95 % 0 lf 1035,7 hPa 0,0 l/m 2 min 0 min 132 W/m 0,0 km/h (0 Bft) 95,74 %
16.02.2016 09:10 -4,3 C -3,9 C -4,4 C 95 % 0 lf 1035,7 hPa 0,0 l/m 2 min 0 min 136 W/m 0,0 km/h (0 Bft) 95,65 %
16.02.2016 09:12 -4,3 C -3,3 C -4,4 C 95 % 0 lf 1035,7 hPa 0,0 l/m 2 min 0 min 141 W/m 0,0 km/h (0 Bft) 95,74 %
16.02.2016 09:14 -4,2 C -3,3 C -4,4 C 95 % 0 lf 1035,7 hPa 0,0 l/m 2 min 0 min 146 W/m 4,2 km/h (1 Bft) 93,62 %
16.02.2016 09:16 -4,2 C -3,3 C -4,4 C 95 % 0 lf 1035,7 hPa 0,0 l/m 2 min 0 min 152 W/m 4,2 km/h (1 Bft) 91,49 %
16.02.2016 09:18 -4,1 C -3,3 C -3,9 C 95 % 0 lf 1035,8 hPa 0,0 l/m 2 min 0 min 156 W/m 4,2 km/h (1 Bft) 93,62 %
16.02.2016 09:20 -4,1 C -2,8 C -3,9 C 95 % 0 lf 1035,8 hPa 0,0 l/m 2 min 0 min 162 W/m 2,1 km/h (1 Bft) 95,65 %
16.02.2016 09:22 -4,0 C -2,8 C -3,9 C 95 % 0 lf 1035,9 hPa 0,0 l/m 2 min 0 min 163 W/m 2,1 km/h (1 Bft) 91,49 %
16.02.2016 09:24 -3,9 C -1,1 C -3,3 C 95 % 0 lf 1035,9 hPa 0,0 l/m 2 min 0 min 169 W/m 2,1 km/h (1 Bft) 95,74 %
16.02.2016 09:26 -3,8 C 0,0 C -3,3 C 95 % 0 lf 1036,0 hPa 0,0 l/m 2 min 0 min 178 W/m 4,2 km/h (1 Bft) 93,62 %
16.02.2016 09:28 -3,7 C 0,6 C -3,3 C 95 % 0 lf 1036,1 hPa 0,0 l/m 2 min 0 min 182 W/m 4,2 km/h (1 Bft) 93,62 %
16.02.2016 09:30 -3,6 C 2,8 C -3,3 C 95 % 0 lf 1036,1 hPa 0,0 l/m 2 min 0 min 187 W/m 4,2 km/h (1 Bft) 97,87 %
16.02.2016 09:32 -3,6 C 4,4 C -3,3 C 95 % 0 lf 1036,2 hPa 0,0 l/m 2 min 0 min 192 W/m 4,2 km/h (1 Bft) 95,65 %
16.02.2016 09:34 -3,4 C 5,6 C -3,3 C 95 % 0 lf 1036,2 hPa 0,0 l/m 2 min 0 min 196 W/m 4,2 km/h (1 Bft) 95,74 %
16.02.2016 09:36 -3,3 C 6,1 C -2,8 C 95 % 0 lf 1036,2 hPa 0,0 l/m 2 min 0 min 201 W/m 6,3 km/h (2 Bft) 97,87 %
16.02.2016 09:38 -3,2 C 6,7 C -2,8 C 96 % 0 lf 1036,3 hPa 0,0 l/m 2 min 2 min 206 W/m 4,2 km/h (1 Bft) 97,87 %
16.02.2016 09:40 -3,1 C 6,7 C -2,8 C 96 % 1 lf 1036,3 hPa 0,0 l/m 2 min 2 min 210 W/m 6,3 km/h (2 Bft) 95,74 %
16.02.2016 09:42 -2,9 C 7,2 C -2,8 C 96 % 1 lf 1036,2 hPa 0,0 l/m 2 min 0 min 214 W/m 4,2 km/h (1 Bft) 95,74 %
16.02.2016 09:44 -2,8 C 7,8 C -2,2 C 96 % 1 lf 1036,3 hPa 0,0 l/m 2 min 2 min 218 W/m 4,2 km/h (1 Bft) 97,83 %
16.02.2016 09:46 -2,7 C 7,8 C -2,2 C 96 % 1 lf 1036,2 hPa 0,0 l/m 2 min 0 min 224 W/m 2,1 km/h (1 Bft) 95,74 %
16.02.2016 09:48 -2,6 C 7,8 C -1,7 C 96 % 1 lf 1036,3 hPa 0,0 l/m 2 min 0 min 235 W/m 6,3 km/h (2 Bft) 100,00 %
16.02.2016 09:50 -2,4 C 7,8 C -0,6 C 96 % 1 lf 1036,2 hPa 0,0 l/m 2 min 0 min 240 W/m 4,2 km/h (1 Bft) 97,87 %
16.02.2016 09:52 -2,3 C 8,3 C 0,6 C 96 % 1 lf 1036,2 hPa 0,0 l/m 2 min 0 min 230 W/m 6,3 km/h (2 Bft) 97,87 %
16.02.2016 09:54 -2,2 C 8,3 C 1,7 C 96 % 1 lf 1036,3 hPa 0,0 l/m 2 min 0 min 246 W/m 4,2 km/h (1 Bft) 100,00 %
16.02.2016 09:56 -2,1 C 8,3 C 2,2 C 96 % 1 lf 1036,3 hPa 0,0 l/m 2 min 0 min 253 W/m 2,1 km/h (1 Bft) 91,49 %
16.02.2016 09:58 -1,9 C 8,3 C 2,2 C 96 % 1 lf 1036,3 hPa 0,0 l/m 2 min 0 min 260 W/m 4,2 km/h (1 Bft) 95,74 %
16.02.2016 10:00 -1,8 C 8,3 C 2,8 C 96 % 1 lf 1036,2 hPa 0,0 l/m 2 min 0 min 267 W/m 2,1 km/h (1 Bft) 95,74 %
16.02.2016 10:02 -1,7 C 9,4 C 2,8 C 96 % 1 lf 1036,3 hPa 0,0 l/m 2 min 0 min 271 W/m 4,2 km/h (1 Bft) 97,87 %
16.02.2016 10:04 -1,6 C 10,0 C 2,2 C 96 % 1 lf 1036,2 hPa 0,0 l/m 2 min 0 min 277 W/m 4,2 km/h (1 Bft) 97,87 %
16.02.2016 10:06 -1,4 C 9,4 C 1,7 C 96 % 1 lf 1036,3 hPa 0,0 l/m 2 min 0 min 285 W/m 4,2 km/h (1 Bft) 95,65 %
16.02.2016 10:08 -1,3 C 10,0 C 0,6 C 96 % 1 lf 1036,3 hPa 0,0 l/m 2 min 0 min 290 W/m 4,2 km/h (1 Bft) 95,74 %
16.02.2016 10:10 -1,2 C 10,0 C 0,0 C 96 % 1 lf 1036,3 hPa 0,0 l/m 2 min 0 min 295 W/m 6,3 km/h (2 Bft) 95,74 %
16.02.2016 10:12 -1,1 C 10,6 C -0,6 C 96 % 1 lf 1036,3 hPa 0,0 l/m 2 min 0 min 299 W/m 6,3 km/h (2 Bft) 95,74 %
16.02.2016 10:14 -1,0 C 10,6 C -0,6 C 96 % 1 lf 1036,3 hPa 0,0 l/m 2 min 0 min 303 W/m 6,3 km/h (2 Bft) 97,87 %
16.02.2016 10:16 -0,9 C 10,6 C -1,1 C 96 % 1 lf 1036,3 hPa 0,0 l/m 2 min 0 min 308 W/m 4,2 km/h (1 Bft) 95,74 %
16.02.2016 10:18 -0,8 C 10,6 C -0,6 C 96 % 2 lf 1036,3 hPa 0,0 l/m 2 min 0 min 311 W/m 4,2 km/h (1 Bft) 97,83 %
16.02.2016 10:20 -0,7 C 10,6 C -1,1 C 96 % 2 lf 1036,3 hPa 0,0 l/m 2 min 0 min 315 W/m 2,1 km/h (1 Bft) 93,62 %
16.02.2016 10:22 -0,7 C 11,1 C -0,6 C 97 % 3 lf 1036,4 hPa 0,0 l/m 2 min 0 min 318 W/m 4,2 km/h (1 Bft) 97,87 %
16.02.2016 10:24 -0,6 C 11,1 C -0,6 C 97 % 3 lf 1036,3 hPa 0,0 l/m 2 min 0 min 322 W/m 4,2 km/h (1 Bft) 93,62 %
16.02.2016 10:26 -0,5 C 11,1 C -0,6 C 96 % 5 lf 1036,4 hPa 0,0 l/m 2 min 0 min 326 W/m 2,1 km/h (1 Bft) 95,74 %
16.02.2016 10:28 -0,4 C 10,0 C -0,6 C 96 % 9 lf 1036,3 hPa 0,0 l/m 2 min 0 min 330 W/m 2,1 km/h (1 Bft) 95,74 %
16.02.2016 10:30 -0,3 C 8,9 C -0,6 C 96 % 14 lf 1036,4 hPa 0,0 l/m 2 min 0 min 336 W/m 4,2 km/h (1 Bft) 95,65 %
16.02.2016 10:32 -0,1 C 8,9 C -0,6 C 97 % 15 lf 1036,3 hPa 0,0 l/m 2 min 0 min 340 W/m 4,2 km/h (1 Bft) 95,74 %
16.02.2016 10:34 0,1 C 9,4 C -0,6 C 97 % 15 lf 1036,3 hPa 0,0 l/m 2 min 0 min 343 W/m 6,3 km/h (2 Bft) 95,74 %
16.02.2016 10:36 0,3 C 9,4 C -0,6 C 97 % 15 lf 1036,3 hPa 0,0 l/m 2 min 0 min 347 W/m 4,2 km/h (1 Bft) 95,74 %
16.02.2016 10:38 0,4 C 8,9 C -0,6 C 97 % 15 lf 1036,3 hPa 0,0 l/m 2 min 0 min 352 W/m 6,3 km/h (2 Bft) 95,74 %
16.02.2016 10:40 0,5 C 8,9 C -0,6 C 97 % 15 lf 1036,3 hPa 0,0 l/m 2 min 0 min 355 W/m 4,2 km/h (1 Bft) 93,62 %
16.02.2016 10:42 0,6 C 10,0 C -0,6 C 97 % 15 lf 1036,3 hPa 0,0 l/m 2 min 0 min 357 W/m 4,2 km/h (1 Bft) 89,13 %
16.02.2016 10:44 0,7 C 11,1 C -0,6 C 97 % 15 lf 1036,2 hPa 0,0 l/m 2 min 0 min 361 W/m 2,1 km/h (1 Bft) 95,74 %
16.02.2016 10:46 0,7 C 12,8 C -0,6 C 97 % 15 lf 1036,2 hPa 0,0 l/m 2 min 0 min 366 W/m 2,1 km/h (1 Bft) 93,62 %
16.02.2016 10:48 0,8 C 14,4 C -0,6 C 97 % 15 lf 1036,2 hPa 0,0 l/m 2 min 0 min 371 W/m 0,0 km/h (0 Bft) 95,74 %
16.02.2016 10:50 0,8 C 15,0 C -0,6 C 97 % 15 lf 1036,2 hPa 0,0 l/m 2 min 0 min 377 W/m 0,0 km/h (0 Bft) 95,74 %
16.02.2016 10:52 0,8 C 15,6 C -0,6 C 97 % 15 lf 1036,3 hPa 0,0 l/m 2 min 0 min 379 W/m 4,2 km/h (1 Bft) 95,74 %
16.02.2016 10:54 0,8 C 16,1 C 0,0 C 97 % 15 lf 1036,3 hPa 0,0 l/m 2 min 0 min 381 W/m 2,1 km/h (1 Bft) 93,48 %
16.02.2016 10:56 0,9 C 16,7 C 0,0 C 97 % 15 lf 1036,3 hPa 0,0 l/m 2 min 0 min 384 W/m 6,3 km/h (2 Bft) 93,62 %
16.02.2016 10:58 0,9 C 16,1 C 0,0 C 97 % 15 lf 1036,3 hPa 0,0 l/m 2 min 0 min 384 W/m 6,3 km/h (2 Bft) 97,87 %
16.02.2016 11:00 0,9 C 15,0 C 0,0 C 97 % 15 lf 1036,3 hPa 0,0 l/m 2 min 0 min 386 W/m 8,4 km/h (2 Bft) 97,87 %
16.02.2016 11:03 1,0 C 15,0 C 0,0 C 97 % 15 lf 1036,3 hPa 0,0 l/m 2 min 0 min 386 W/m 8,4 km/h (2 Bft) 97,14 %
16.02.2016 11:04 1,0 C 15,6 C 0,0 C 97 % 15 lf 1036,3 hPa 0,0 l/m 1 min 0 min 390 W/m 10,5 km/h (2 Bft) 95,83 %
16.02.2016 11:08 1,1 C 16,7 C 0,0 C 97 % 15 lf 1036,3 hPa 0,0 l/m 2 min 0 min 395 W/m 6,3 km/h (2 Bft) 95,70 %
16.02.2016 11:10 1,1 C 16,7 C 0,6 C 97 % 15 lf 1036,3 hPa 0,0 l/m 2 min 0 min 400 W/m 6,3 km/h (2 Bft) 97,87 %
16.02.2016 11:13 1,2 C 15,6 C 0,6 C 96 % 15 lf 1036,3 hPa 0,0 l/m 2 min 0 min 402 W/m 8,4 km/h (2 Bft) 95,71 %
16.02.2016 11:14 1,2 C 13,9 C 0,6 C 96 % 15 lf 1036,3 hPa 0,0 l/m 1 min 0 min 398 W/m 4,2 km/h (1 Bft) 95,83 %
16.02.2016 11:16 1,3 C 12,8 C 0,6 C 96 % 15 lf 1036,3 hPa 0,0 l/m 2 min 0 min 403 W/m 6,3 km/h (2 Bft) 95,65 %
16.02.2016 11:18 1,4 C 14,4 C 0,6 C 96 % 15 lf 1036,3 hPa 0,0 l/m 2 min 0 min 409 W/m 8,4 km/h (2 Bft) 91,49 %
16.02.2016 11:20 1,4 C 14,4 C 0,6 C 96 % 15 lf 1036,3 hPa 0,0 l/m 2 min 0 min 413 W/m 8,4 km/h (2 Bft) 93,62 %
16.02.2016 11:22 1,5 C 15,0 C 0,6 C 96 % 15 lf 1036,3 hPa 0,0 l/m 2 min 0 min 418 W/m 10,5 km/h (2 Bft) 95,74 %
16.02.2016 11:24 1,5 C 16,1 C 0,6 C 96 % 15 lf 1036,3 hPa 0,0 l/m 2 min 0 min 418 W/m 8,4 km/h (2 Bft) 93,62 %
16.02.2016 11:26 1,6 C 15,6 C 0,6 C 96 % 15 lf 1036,3 hPa 0,0 l/m 2 min 0 min 424 W/m 8,4 km/h (2 Bft) 93,62 %
16.02.2016 11:28 1,7 C 16,1 C 1,1 C 96 % 15 lf 1036,3 hPa 0,0 l/m 2 min 0 min 421 W/m 10,5 km/h (2 Bft) 93,48 %
16.02.2016 11:30 1,7 C 15,0 C 1,1 C 95 % 15 lf 1036,3 hPa 0,0 l/m 2 min 0 min 424 W/m 8,4 km/h (2 Bft) 95,74 %
16.02.2016 11:32 1,7 C 15,0 C 1,1 C 95 % 15 lf 1036,3 hPa 0,0 l/m 2 min 0 min 414 W/m 6,3 km/h (2 Bft) 89,36 %
16.02.2016 11:34 1,8 C 14,4 C 1,1 C 95 % 15 lf 1036,3 hPa 0,0 l/m 2 min 0 min 411 W/m 8,4 km/h (2 Bft) 91,49 %
16.02.2016 11:36 1,8 C 15,0 C 1,1 C 95 % 15 lf 1036,4 hPa 0,0 l/m 2 min 0 min 425 W/m 6,3 km/h (2 Bft) 91,49 %
16.02.2016 11:38 1,9 C 13,3 C 1,7 C 94 % 15 lf 1036,4 hPa 0,0 l/m 2 min 0 min 429 W/m 8,4 km/h (2 Bft) 95,74 %
16.02.2016 11:40 1,9 C 13,9 C 2,8 C 94 % 15 lf 1036,4 hPa 0,0 l/m 2 min 0 min 437 W/m 8,4 km/h (2 Bft) 97,83 %
16.02.2016 11:42 2,0 C 12,2 C 3,3 C 93 % 15 lf 1036,4 hPa 0,0 l/m 2 min 0 min 433 W/m 6,3 km/h (2 Bft) 91,49 %
16.02.2016 11:44 2,1 C 12,2 C 3,3 C 93 % 15 lf 1036,4 hPa 0,0 l/m 2 min 0 min 436 W/m 6,3 km/h (2 Bft) 91,49 %
16.02.2016 11:46 2,2 C 11,1 C 3,9 C 92 % 15 lf 1036,4 hPa 0,0 l/m 2 min 0 min 438 W/m 12,6 km/h (3 Bft) 95,74 %
16.02.2016 11:48 2,4 C 11,1 C 3,9 C 91 % 15 lf 1036,4 hPa 0,0 l/m 2 min 0 min 438 W/m 12,6 km/h (3 Bft) 87,23 %
16.02.2016 11:50 2,5 C 11,7 C 4,4 C 90 % 13 lf 1036,3 hPa 0,0 l/m 2 min 0 min 435 W/m 10,5 km/h (2 Bft) 95,74 %
16.02.2016 11:52 2,6 C 11,1 C 4,4 C 89 % 11 lf 1036,4 hPa 0,0 l/m 2 min 0 min 442 W/m 10,5 km/h (2 Bft) 95,65 %
16.02.2016 11:54 2,8 C 10,0 C 3,9 C 88 % 5 lf 1036,4 hPa 0,0 l/m 2 min 0 min 443 W/m 12,6 km/h (3 Bft) 97,87 %
16.02.2016 11:56 2,9 C 11,1 C 3,9 C 86 % 2 lf 1036,4 hPa 0,0 l/m 2 min 0 min 441 W/m 14,6 km/h (3 Bft) 93,62 %
16.02.2016 11:58 3,0 C 10,6 C 4,4 C 84 % 0 lf 1036,3 hPa 0,0 l/m 2 min 0 min 445 W/m 14,6 km/h (3 Bft) 93,62 %
16.02.2016 12:00 3,1 C 10,6 C 4,4 C 83 % 0 lf 1036,3 hPa 0,0 l/m 2 min 0 min 452 W/m 16,7 km/h (3 Bft) 95,74 %
16.02.2016 12:02 3,2 C 10,0 C 3,9 C 82 % 0 lf 1036,3 hPa 0,0 l/m 2 min 0 min 451 W/m 16,7 km/h (3 Bft) 95,74 %
16.02.2016 12:04 3,3 C 10,0 C 3,3 C 81 % 0 lf 1036,3 hPa 0,0 l/m 2 min 0 min 448 W/m 12,6 km/h (3 Bft) 94,29 %
16.02.2016 12:06 3,4 C 10,6 C 3,3 C 80 % 0 lf 1036,3 hPa 0,0 l/m 2 min 0 min 450 W/m 12,6 km/h (3 Bft) 93,48 %
16.02.2016 12:08 3,5 C 11,7 C 2,8 C 79 % 0 lf 1036,4 hPa 0,0 l/m 2 min 0 min 452 W/m 14,6 km/h (3 Bft) 95,74 %
16.02.2016 12:10 3,6 C 10,6 C 2,8 C 78 % 0 lf 1036,4 hPa 0,0 l/m 2 min 0 min 454 W/m 12,6 km/h (3 Bft) 93,62 %
16.02.2016 12:12 3,6 C 9,4 C 2,2 C 77 % 0 lf 1036,3 hPa 0,0 l/m 2 min 0 min 450 W/m 16,7 km/h (3 Bft) 91,49 %
16.02.2016 12:14 3,7 C 8,9 C 2,2 C 76 % 0 lf 1036,3 hPa 0,0 l/m 2 min 0 min 454 W/m 14,6 km/h (3 Bft) 95,74 %
16.02.2016 12:16 3,7 C 11,1 C 2,2 C 76 % 0 lf 1036,3 hPa 0,0 l/m 2 min 0 min 456 W/m 6,3 km/h (2 Bft) 91,49 %
16.02.2016 12:18 3,7 C 13,3 C 2,2 C 76 % 0 lf 1036,3 hPa 0,0 l/m 2 min 0 min 456 W/m 10,5 km/h (2 Bft) 95,65 %
16.02.2016 12:20 3,7 C 12,8 C 2,2 C 76 % 0 lf 1036,3 hPa 0,0 l/m 2 min 0 min 453 W/m 8,4 km/h (2 Bft) 95,74 %
16.02.2016 12:22 3,8 C 14,4 C 2,2 C 75 % 0 lf 1036,3 hPa 0,0 l/m 2 min 0 min 455 W/m 8,4 km/h (2 Bft) 97,87 %
16.02.2016 12:24 3,8 C 15,6 C 2,2 C 75 % 0 lf 1036,4 hPa 0,0 l/m 2 min 0 min 456 W/m 8,4 km/h (2 Bft) 93,62 %
16.02.2016 12:26 3,8 C 14,4 C 2,2 C 75 % 0 lf 1036,3 hPa 0,0 l/m 2 min 0 min 459 W/m 10,5 km/h (2 Bft) 97,87 %
16.02.2016 12:28 3,9 C 16,1 C 2,2 C 75 % 0 lf 1036,3 hPa 0,0 l/m 2 min 0 min 464 W/m 8,4 km/h (2 Bft) 97,87 %
16.02.2016 12:30 3,9 C 16,1 C 2,2 C 75 % 0 lf 1036,2 hPa 0,0 l/m 2 min 0 min 466 W/m 6,3 km/h (2 Bft) 95,65 %
16.02.2016 12:32 4,0 C 13,9 C 2,2 C 75 % 0 lf 1036,2 hPa 0,0 l/m 2 min 0 min 464 W/m 10,5 km/h (2 Bft) 97,87 %
16.02.2016 12:34 4,1 C 13,9 C 2,8 C 75 % 0 lf 1036,2 hPa 0,0 l/m 2 min 0 min 465 W/m 10,5 km/h (2 Bft) 93,62 %
16.02.2016 12:36 4,2 C 15,6 C 2,8 C 75 % 0 lf 1036,1 hPa 0,0 l/m 2 min 0 min 463 W/m 10,5 km/h (2 Bft) 97,87 %
16.02.2016 12:38 4,2 C 16,1 C 2,2 C 74 % 0 lf 1036,2 hPa 0,0 l/m 2 min 0 min 463 W/m 8,4 km/h (2 Bft) 97,87 %
16.02.2016 12:40 4,2 C 16,1 C 1,7 C 74 % 0 lf 1036,1 hPa 0,0 l/m 2 min 0 min 456 W/m 12,6 km/h (3 Bft) 95,74 %
16.02.2016 12:42 4,2 C 15,0 C 1,7 C 73 % 0 lf 1036,1 hPa 0,0 l/m 2 min 0 min 462 W/m 10,5 km/h (2 Bft) 95,65 %
16.02.2016 12:44 4,2 C 16,7 C 1,7 C 73 % 0 lf 1036,1 hPa 0,0 l/m 2 min 0 min 464 W/m 10,5 km/h (2 Bft) 95,74 %
16.02.2016 12:46 4,3 C 15,6 C 2,2 C 73 % 0 lf 1036,2 hPa 0,0 l/m 2 min 0 min 463 W/m 14,6 km/h (3 Bft) 91,49 %
16.02.2016 12:48 4,3 C 16,1 C 2,2 C 73 % 0 lf 1036,1 hPa 0,0 l/m 2 min 0 min 459 W/m 10,5 km/h (2 Bft) 95,74 %
16.02.2016 12:50 4,3 C 15,6 C 2,2 C 73 % 0 lf 1036,1 hPa 0,0 l/m 2 min 0 min 458 W/m 10,5 km/h (2 Bft) 95,74 %
16.02.2016 12:52 4,4 C 15,6 C 2,8 C 73 % 0 lf 1036,1 hPa 0,0 l/m 2 min 0 min 460 W/m 18,8 km/h (3 Bft) 93,62 %
16.02.2016 12:54 4,4 C 16,1 C 2,8 C 73 % 0 lf 1036,1 hPa 0,0 l/m 2 min 0 min 462 W/m 6,3 km/h (2 Bft) 95,65 %
16.02.2016 12:56 4,4 C 16,7 C 2,8 C 73 % 0 lf 1036,0 hPa 0,0 l/m 2 min 0 min 460 W/m 6,3 km/h (2 Bft) 91,49 %
16.02.2016 12:58 4,5 C 18,3 C 2,8 C 73 % 0 lf 1036,1 hPa 0,0 l/m 2 min 0 min 461 W/m 16,7 km/h (3 Bft) 91,49 %
16.02.2016 13:00 4,6 C 14,4 C 2,8 C 73 % 0 lf 1036,0 hPa 0,0 l/m 2 min 0 min 459 W/m 16,7 km/h (3 Bft) 95,74 %
16.02.2016 13:02 4,7 C 12,2 C 2,2 C 71 % 0 lf 1036,0 hPa 0,0 l/m 2 min 0 min 457 W/m 12,6 km/h (3 Bft) 93,62 %
16.02.2016 13:04 4,7 C 12,2 C 2,2 C 71 % 0 lf 1036,0 hPa 0,0 l/m 2 min 0 min 456 W/m 6,3 km/h (2 Bft) 95,74 %
16.02.2016 13:06 4,8 C 14,4 C 2,2 C 71 % 0 lf 1035,9 hPa 0,0 l/m 2 min 0 min 458 W/m 16,7 km/h (3 Bft) 93,48 %
16.02.2016 13:08 4,8 C 13,9 C 2,2 C 71 % 0 lf 1035,9 hPa 0,0 l/m 2 min 0 min 458 W/m 16,7 km/h (3 Bft) 95,74 %
16.02.2016 13:10 4,9 C 12,2 C 2,2 C 70 % 0 lf 1035,9 hPa 0,0 l/m 2 min 0 min 459 W/m 14,6 km/h (3 Bft) 93,62 %
16.02.2016 13:12 4,9 C 11,1 C 2,2 C 69 % 0 lf 1035,9 hPa 0,0 l/m 2 min 0 min 457 W/m 12,6 km/h (3 Bft) 97,87 %
16.02.2016 13:14 4,9 C 12,2 C 2,2 C 68 % 0 lf 1036,0 hPa 0,0 l/m 2 min 0 min 460 W/m 16,7 km/h (3 Bft) 89,36 %
16.02.2016 13:16 5,0 C 11,7 C 2,8 C 68 % 0 lf 1035,9 hPa 0,0 l/m 2 min 0 min 456 W/m 10,5 km/h (2 Bft) 97,87 %
16.02.2016 13:18 5,1 C 12,2 C 2,8 C 68 % 0 lf 1035,9 hPa 0,0 l/m 2 min 0 min 453 W/m 18,8 km/h (3 Bft) 97,83 %
16.02.2016 13:20 5,1 C 12,2 C 2,8 C 68 % 0 lf 1035,9 hPa 0,0 l/m 2 min 0 min 448 W/m 14,6 km/h (3 Bft) 97,87 %
16.02.2016 13:22 5,1 C 12,8 C 2,2 C 67 % 0 lf 1035,8 hPa 0,0 l/m 2 min 0 min 446 W/m 16,7 km/h (3 Bft) 97,87 %
16.02.2016 13:24 5,1 C 12,2 C 2,8 C 67 % 0 lf 1035,8 hPa 0,0 l/m 2 min 0 min 446 W/m 16,7 km/h (3 Bft) 95,74 %
16.02.2016 13:26 5,1 C 10,6 C 2,8 C 67 % 0 lf 1035,7 hPa 0,0 l/m 2 min 0 min 448 W/m 16,7 km/h (3 Bft) 95,74 %
16.02.2016 13:28 5,1 C 12,2 C 2,8 C 67 % 0 lf 1035,7 hPa 0,0 l/m 2 min 0 min 445 W/m 16,7 km/h (3 Bft) 95,65 %
16.02.2016 13:30 5,2 C 13,9 C 2,8 C 67 % 0 lf 1035,7 hPa 0,0 l/m 2 min 0 min 446 W/m 16,7 km/h (3 Bft) 95,74 %
16.02.2016 13:32 5,2 C 12,8 C 2,8 C 67 % 0 lf 1035,6 hPa 0,0 l/m 2 min 0 min 444 W/m 14,6 km/h (3 Bft) 95,74 %
16.02.2016 13:34 5,2 C 12,8 C 2,8 C 67 % 0 lf 1035,6 hPa 0,0 l/m 2 min 0 min 441 W/m 12,6 km/h (3 Bft) 95,74 %
16.02.2016 13:36 5,2 C 13,9 C 2,8 C 66 % 0 lf 1035,6 hPa 0,0 l/m 2 min 0 min 439 W/m 18,8 km/h (3 Bft) 93,62 %
16.02.2016 13:38 5,3 C 13,3 C 2,8 C 66 % 0 lf 1035,6 hPa 0,0 l/m 2 min 0 min 434 W/m 16,7 km/h (3 Bft) 95,74 %
16.02.2016 13:40 5,3 C 13,3 C 2,8 C 66 % 0 lf 1035,6 hPa 0,0 l/m 2 min 0 min 430 W/m 16,7 km/h (3 Bft) 95,65 %
16.02.2016 13:42 5,3 C 13,9 C 2,8 C 66 % 0 lf 1035,6 hPa 0,0 l/m 2 min 0 min 430 W/m 14,6 km/h (3 Bft) 95,74 %
16.02.2016 13:44 5,3 C 13,9 C 2,8 C 67 % 0 lf 1035,5 hPa 0,0 l/m 2 min 0 min 429 W/m 20,9 km/h (4 Bft) 91,49 %
16.02.2016 13:46 5,4 C 14,4 C 2,8 C 66 % 0 lf 1035,5 hPa 0,0 l/m 2 min 0 min 432 W/m 14,6 km/h (3 Bft) 93,62 %
16.02.2016 13:48 5,4 C 12,8 C 2,8 C 66 % 0 lf 1035,5 hPa 0,0 l/m 2 min 0 min 428 W/m 18,8 km/h (3 Bft) 93,62 %
16.02.2016 13:50 5,4 C 11,1 C 2,8 C 65 % 0 lf 1035,5 hPa 0,0 l/m 2 min 0 min 426 W/m 18,8 km/h (3 Bft) 89,36 %
16.02.2016 13:52 5,4 C 10,0 C 2,8 C 64 % 0 lf 1035,5 hPa 0,0 l/m 2 min 0 min 424 W/m 16,7 km/h (3 Bft) 93,48 %
16.02.2016 13:54 5,4 C 12,2 C 2,2 C 64 % 0 lf 1035,5 hPa 0,0 l/m 2 min 0 min 422 W/m 6,3 km/h (2 Bft) 97,87 %
16.02.2016 13:56 5,4 C 12,8 C 2,8 C 65 % 0 lf 1035,4 hPa 0,0 l/m 2 min 0 min 418 W/m 18,8 km/h (3 Bft) 95,74 %
16.02.2016 13:58 5,4 C 10,6 C 2,8 C 65 % 0 lf 1035,3 hPa 0,0 l/m 2 min 0 min 417 W/m 16,7 km/h (3 Bft) 95,74 %
16.02.2016 14:00 5,3 C 10,6 C 2,8 C 65 % 0 lf 1035,2 hPa 0,0 l/m 2 min 0 min 416 W/m 16,7 km/h (3 Bft) 95,74 %
16.02.2016 14:02 5,3 C 9,4 C 2,8 C 64 % 0 lf 1035,3 hPa 0,0 l/m 2 min 0 min 412 W/m 14,6 km/h (3 Bft) 93,62 %
16.02.2016 14:04 5,2 C 9,4 C 2,8 C 64 % 0 lf 1035,2 hPa 0,0 l/m 2 min 0 min 412 W/m 14,6 km/h (3 Bft) 93,48 %
16.02.2016 14:06 5,2 C 10,0 C 2,8 C 64 % 0 lf 1035,1 hPa 0,0 l/m 2 min 0 min 414 W/m 23,0 km/h (4 Bft) 93,62 %
16.02.2016 14:08 5,2 C 11,7 C 2,8 C 65 % 0 lf 1035,1 hPa 0,0 l/m 2 min 0 min 414 W/m 18,8 km/h (3 Bft) 93,62 %
16.02.2016 14:10 5,2 C 11,7 C 2,8 C 65 % 0 lf 1035,1 hPa 0,0 l/m 2 min 0 min 407 W/m 18,8 km/h (3 Bft) 95,74 %
16.02.2016 14:12 5,1 C 12,8 C 2,8 C 65 % 0 lf 1035,0 hPa 0,0 l/m 2 min 0 min 404 W/m 18,8 km/h (3 Bft) 97,87 %
16.02.2016 14:14 5,1 C 13,3 C 2,8 C 65 % 0 lf 1035,0 hPa 0,0 l/m 2 min 0 min 405 W/m 18,8 km/h (3 Bft) 91,49 %
16.02.2016 14:16 5,2 C 13,9 C 2,8 C 66 % 0 lf 1035,0 hPa 0,0 l/m 2 min 0 min 403 W/m 14,6 km/h (3 Bft) 95,65 %
16.02.2016 14:18 5,2 C 12,8 C 2,8 C 66 % 0 lf 1035,0 hPa 0,0 l/m 2 min 0 min 402 W/m 16,7 km/h (3 Bft) 93,62 %
16.02.2016 14:20 5,3 C 13,3 C 2,8 C 65 % 0 lf 1035,0 hPa 0,0 l/m 2 min 0 min 396 W/m 16,7 km/h (3 Bft) 95,74 %
16.02.2016 14:21 5,3 C 11,7 C 2,8 C 65 % 0 lf 1035,0 hPa 0,0 l/m 1 min 0 min 390 W/m 14,6 km/h (3 Bft) 86,96 %
16.02.2016 14:22 5,3 C 11,1 C 2,8 C 65 % 0 lf 1035,0 hPa 0,0 l/m 1 min 0 min 388 W/m 10,5 km/h (2 Bft) 91,30 %
16.02.2016 14:23 5,3 C 11,7 C 2,8 C 65 % 0 lf 1035,0 hPa 0,0 l/m 1 min 0 min 388 W/m 16,7 km/h (3 Bft) 95,65 %
16.02.2016 14:26 5,4 C 10,6 C 2,8 C 65 % 0 lf 1034,9 hPa 0,0 l/m 2 min 0 min 390 W/m 20,9 km/h (4 Bft) 89,36 %
16.02.2016 14:28 5,4 C 11,1 C 3,3 C 65 % 0 lf 1035,0 hPa 0,0 l/m 2 min 0 min 386 W/m 14,6 km/h (3 Bft) 91,49 %
16.02.2016 14:30 5,5 C 11,1 C 2,8 C 65 % 0 lf 1034,9 hPa 0,0 l/m 2 min 0 min 385 W/m 18,8 km/h (3 Bft) 87,23 %
16.02.2016 14:32 5,6 C 12,8 C 3,3 C 66 % 0 lf 1034,9 hPa 0,0 l/m 2 min 0 min 376 W/m 12,6 km/h (3 Bft) 87,23 %
16.02.2016 14:34 5,6 C 14,4 C 2,8 C 66 % 0 lf 1034,9 hPa 0,0 l/m 2 min 0 min 377 W/m 10,5 km/h (2 Bft) 91,49 %
16.02.2016 14:36 5,6 C 14,4 C 2,8 C 65 % 0 lf 1034,9 hPa 0,0 l/m 2 min 0 min 375 W/m 14,6 km/h (3 Bft) 91,49 %
16.02.2016 14:38 5,7 C 12,2 C 2,8 C 65 % 0 lf 1034,9 hPa 0,0 l/m 2 min 0 min 372 W/m 12,6 km/h (3 Bft) 86,96 %
16.02.2016 14:40 5,7 C 12,8 C 2,8 C 64 % 0 lf 1034,9 hPa 0,0 l/m 2 min 0 min 369 W/m 14,6 km/h (3 Bft) 89,36 %
16.02.2016 14:42 5,7 C 13,9 C 3,3 C 65 % 0 lf 1034,9 hPa 0,0 l/m 2 min 0 min 365 W/m 18,8 km/h (3 Bft) 93,62 %
16.02.2016 14:44 5,8 C 15,0 C 3,3 C 65 % 0 lf 1034,9 hPa 0,0 l/m 2 min 0 min 361 W/m 16,7 km/h (3 Bft) 93,62 %
16.02.2016 14:46 5,8 C 15,0 C 2,8 C 65 % 0 lf 1034,9 hPa 0,0 l/m 2 min 0 min 355 W/m 8,4 km/h (2 Bft) 93,62 %
16.02.2016 14:48 5,8 C 12,8 C 2,8 C 64 % 0 lf 1034,8 hPa 0,0 l/m 2 min 0 min 349 W/m 10,5 km/h (2 Bft) 93,48 %
16.02.2016 14:50 5,8 C 13,9 C 2,8 C 64 % 0 lf 1034,8 hPa 0,0 l/m 2 min 0 min 348 W/m 8,4 km/h (2 Bft) 93,62 %
16.02.2016 14:52 5,8 C 13,9 C 2,8 C 64 % 0 lf 1034,8 hPa 0,0 l/m 2 min 0 min 344 W/m 12,6 km/h (3 Bft) 93,62 %
16.02.2016 14:54 5,9 C 12,2 C 2,8 C 64 % 0 lf 1034,9 hPa 0,0 l/m 2 min 0 min 339 W/m 10,5 km/h (2 Bft) 95,74 %
16.02.2016 14:56 5,9 C 13,9 C 2,8 C 65 % 0 lf 1034,8 hPa 0,0 l/m 2 min 0 min 333 W/m 16,7 km/h (3 Bft) 91,49 %
16.02.2016 14:58 5,9 C 14,4 C 2,8 C 65 % 0 lf 1034,9 hPa 0,0 l/m 2 min 0 min 327 W/m 14,6 km/h (3 Bft) 93,62 %
16.02.2016 15:00 5,9 C 14,4 C 2,8 C 64 % 0 lf 1034,7 hPa 0,0 l/m 2 min 0 min 326 W/m 10,5 km/h (2 Bft) 93,48 %
16.02.2016 15:02 5,9 C 15,6 C 2,8 C 65 % 0 lf 1034,7 hPa 0,0 l/m 2 min 0 min 323 W/m 10,5 km/h (2 Bft) 93,62 %
16.02.2016 15:04 5,9 C 16,1 C 2,8 C 65 % 0 lf 1034,6 hPa 0,0 l/m 2 min 0 min 316 W/m 8,4 km/h (2 Bft) 95,74 %
16.02.2016 15:06 5,9 C 13,3 C 2,8 C 64 % 0 lf 1034,6 hPa 0,0 l/m 2 min 0 min 310 W/m 6,3 km/h (2 Bft) 93,62 %
16.02.2016 15:08 6,0 C 13,3 C 2,8 C 64 % 0 lf 1034,6 hPa 0,0 l/m 2 min 0 min 307 W/m 18,8 km/h (3 Bft) 93,62 %
16.02.2016 15:10 6,0 C 12,2 C 2,8 C 64 % 0 lf 1034,6 hPa 0,0 l/m 2 min 0 min 301 W/m 14,6 km/h (3 Bft) 93,62 %
16.02.2016 15:12 6,0 C 12,2 C 2,8 C 63 % 0 lf 1034,6 hPa 0,0 l/m 2 min 0 min 296 W/m 14,6 km/h (3 Bft) 97,83 %
16.02.2016 15:14 6,0 C 13,3 C 2,8 C 63 % 0 lf 1034,6 hPa 0,0 l/m 2 min 0 min 294 W/m 12,6 km/h (3 Bft) 91,49 %
16.02.2016 15:16 6,0 C 14,4 C 2,8 C 63 % 0 lf 1034,7 hPa 0,0 l/m 2 min 0 min 290 W/m 14,6 km/h (3 Bft) 95,74 %
16.02.2016 15:18 6,0 C 15,0 C 2,8 C 63 % 0 lf 1034,6 hPa 0,0 l/m 2 min 0 min 283 W/m 6,3 km/h (2 Bft) 97,87 %
16.02.2016 15:20 6,0 C 12,8 C 2,8 C 63 % 0 lf 1034,7 hPa 0,0 l/m 2 min 0 min 280 W/m 10,5 km/h (2 Bft) 97,87 %
16.02.2016 15:22 6,1 C 13,3 C 2,8 C 62 % 0 lf 1034,7 hPa 0,0 l/m 2 min 0 min 278 W/m 6,3 km/h (2 Bft) 95,74 %
16.02.2016 15:24 6,1 C 12,2 C 2,8 C 62 % 0 lf 1034,7 hPa 0,0 l/m 2 min 0 min 274 W/m 14,6 km/h (3 Bft) 93,48 %
16.02.2016 15:26 6,0 C 11,1 C 3,3 C 61 % 0 lf 1034,6 hPa 0,0 l/m 2 min 0 min 268 W/m 16,7 km/h (3 Bft) 97,87 %
16.02.2016 15:28 6,0 C 11,1 C 3,3 C 61 % 0 lf 1034,7 hPa 0,0 l/m 2 min 0 min 265 W/m 14,6 km/h (3 Bft) 97,87 %
16.02.2016 15:30 5,9 C 11,7 C 3,3 C 61 % 0 lf 1034,6 hPa 0,0 l/m 2 min 0 min 260 W/m 16,7 km/h (3 Bft) 97,87 %
16.02.2016 15:32 5,9 C 11,1 C 3,3 C 61 % 0 lf 1034,5 hPa 0,0 l/m 2 min 0 min 254 W/m 16,7 km/h (3 Bft) 97,87 %
16.02.2016 15:34 5,9 C 11,7 C 2,8 C 61 % 0 lf 1034,5 hPa 0,0 l/m 2 min 0 min 247 W/m 10,5 km/h (2 Bft) 97,87 %
16.02.2016 15:36 5,9 C 11,1 C 3,3 C 61 % 0 lf 1034,5 hPa 0,0 l/m 2 min 0 min 241 W/m 6,3 km/h (2 Bft) 97,83 %
16.02.2016 15:38 5,8 C 10,0 C 3,3 C 62 % 0 lf 1034,5 hPa 0,0 l/m 2 min 0 min 233 W/m 10,5 km/h (2 Bft) 97,87 %
16.02.2016 15:40 5,8 C 8,3 C 2,8 C 62 % 0 lf 1034,4 hPa 0,0 l/m 2 min 0 min 229 W/m 14,6 km/h (3 Bft) 93,62 %
16.02.2016 15:42 5,8 C 8,9 C 2,8 C 61 % 0 lf 1034,4 hPa 0,0 l/m 2 min 0 min 220 W/m 10,5 km/h (2 Bft) 97,87 %
16.02.2016 15:44 5,7 C 8,9 C 2,8 C 61 % 0 lf 1034,4 hPa 0,0 l/m 2 min 0 min 218 W/m 8,4 km/h (2 Bft) 93,62 %
16.02.2016 15:46 5,7 C 8,3 C 2,8 C 61 % 0 lf 1034,5 hPa 0,0 l/m 2 min 0 min 212 W/m 14,6 km/h (3 Bft) 97,87 %
16.02.2016 15:48 5,7 C 10,0 C 2,8 C 62 % 0 lf 1034,5 hPa 0,0 l/m 2 min 0 min 205 W/m 6,3 km/h (2 Bft) 93,48 %
16.02.2016 15:50 5,6 C 9,4 C 2,8 C 62 % 0 lf 1034,5 hPa 0,0 l/m 2 min 0 min 198 W/m 8,4 km/h (2 Bft) 95,74 %
16.02.2016 15:52 5,6 C 10,0 C 2,8 C 62 % 0 lf 1034,4 hPa 0,0 l/m 2 min 0 min 193 W/m 6,3 km/h (2 Bft) 95,74 %
16.02.2016 15:54 5,6 C 11,7 C 2,8 C 62 % 0 lf 1034,4 hPa 0,0 l/m 2 min 0 min 188 W/m 12,6 km/h (3 Bft) 95,74 %
16.02.2016 15:56 5,6 C 12,2 C 2,8 C 62 % 0 lf 1034,4 hPa 0,0 l/m 2 min 0 min 183 W/m 10,5 km/h (2 Bft) 95,74 %
16.02.2016 15:58 5,6 C 11,7 C 2,8 C 63 % 0 lf 1034,5 hPa 0,0 l/m 2 min 0 min 179 W/m 16,7 km/h (3 Bft) 95,74 %
16.02.2016 16:00 5,5 C 10,6 C 2,8 C 62 % 0 lf 1034,4 hPa 0,0 l/m 2 min 0 min 175 W/m 14,6 km/h (3 Bft) 95,65 %
16.02.2016 16:02 5,5 C 11,1 C 2,2 C 62 % 0 lf 1034,4 hPa 0,0 l/m 2 min 0 min 170 W/m 8,4 km/h (2 Bft) 95,74 %
16.02.2016 16:04 5,5 C 11,1 C 2,2 C 62 % 0 lf 1034,4 hPa 0,0 l/m 2 min 0 min 164 W/m 10,5 km/h (2 Bft) 93,62 %
16.02.2016 16:06 5,4 C 11,7 C 2,2 C 62 % 0 lf 1034,3 hPa 0,0 l/m 2 min 0 min 160 W/m 16,7 km/h (3 Bft) 97,87 %
16.02.2016 16:08 5,4 C 12,2 C 2,2 C 62 % 0 lf 1034,3 hPa 0,0 l/m 2 min 0 min 155 W/m 20,9 km/h (4 Bft) 97,87 %
16.02.2016 16:10 5,4 C 12,2 C 2,2 C 62 % 0 lf 1034,3 hPa 0,0 l/m 2 min 0 min 148 W/m 12,6 km/h (3 Bft) 95,65 %
16.02.2016 16:12 5,3 C 12,2 C 2,2 C 62 % 0 lf 1034,4 hPa 0,0 l/m 2 min 0 min 144 W/m 10,5 km/h (2 Bft) 95,74 %
16.02.2016 16:14 5,3 C 10,6 C 2,2 C 62 % 0 lf 1034,4 hPa 0,0 l/m 2 min 0 min 139 W/m 16,7 km/h (3 Bft) 95,74 %
16.02.2016 16:16 5,3 C 8,3 C 2,2 C 61 % 0 lf 1034,5 hPa 0,0 l/m 2 min 0 min 135 W/m 10,5 km/h (2 Bft) 93,62 %
16.02.2016 16:18 5,2 C 7,2 C 2,2 C 61 % 0 lf 1034,5 hPa 0,0 l/m 2 min 0 min 128 W/m 10,5 km/h (2 Bft) 93,62 %
16.02.2016 16:20 5,2 C 6,1 C 2,2 C 60 % 0 lf 1034,5 hPa 0,0 l/m 2 min 0 min 123 W/m 14,6 km/h (3 Bft) 93,62 %
16.02.2016 16:22 5,2 C 5,6 C 2,2 C 60 % 0 lf 1034,5 hPa 0,0 l/m 2 min 0 min 120 W/m 16,7 km/h (3 Bft) 91,30 %
16.02.2016 16:24 5,2 C 5,0 C 2,8 C 60 % 0 lf 1034,5 hPa 0,0 l/m 2 min 0 min 114 W/m 16,7 km/h (3 Bft) 91,49 %
16.02.2016 16:26 5,1 C 5,0 C 2,8 C 60 % 0 lf 1034,5 hPa 0,0 l/m 2 min 0 min 109 W/m 16,7 km/h (3 Bft) 95,74 %
16.02.2016 16:28 5,0 C 5,0 C 2,8 C 61 % 0 lf 1034,4 hPa 0,0 l/m 2 min 0 min 106 W/m 14,6 km/h (3 Bft) 93,62 %
16.02.2016 16:30 4,9 C 5,0 C 2,2 C 61 % 0 lf 1034,4 hPa 0,0 l/m 2 min 0 min 103 W/m 12,6 km/h (3 Bft) 95,74 %
16.02.2016 16:32 4,9 C 5,0 C 2,2 C 61 % 0 lf 1034,4 hPa 0,0 l/m 2 min 0 min 98 W/m 16,7 km/h (3 Bft) 95,74 %
16.02.2016 16:34 4,9 C 5,0 C 2,2 C 61 % 0 lf 1034,4 hPa 0,0 l/m 2 min 0 min 93 W/m 14,6 km/h (3 Bft) 91,30 %
16.02.2016 16:36 4,8 C 5,0 C 2,2 C 61 % 0 lf 1034,4 hPa 0,0 l/m 2 min 0 min 88 W/m 16,7 km/h (3 Bft) 91,49 %
16.02.2016 16:38 4,7 C 5,0 C 2,2 C 61 % 0 lf 1034,3 hPa 0,0 l/m 2 min 0 min 82 W/m 18,8 km/h (3 Bft) 93,62 %
16.02.2016 16:40 4,7 C 4,4 C 2,2 C 62 % 0 lf 1034,3 hPa 0,0 l/m 2 min 0 min 76 W/m 16,7 km/h (3 Bft) 91,49 %
16.02.2016 16:42 4,7 C 4,4 C 2,2 C 62 % 0 lf 1034,3 hPa 0,0 l/m 2 min 0 min 75 W/m 18,8 km/h (3 Bft) 91,49 %
16.02.2016 16:44 4,6 C 4,4 C 2,2 C 61 % 0 lf 1034,3 hPa 0,0 l/m 2 min 0 min 70 W/m 20,9 km/h (4 Bft) 95,74 %
16.02.2016 16:46 4,6 C 4,4 C 2,2 C 61 % 0 lf 1034,4 hPa 0,0 l/m 2 min 0 min 65 W/m 18,8 km/h (3 Bft) 93,48 %
16.02.2016 16:48 4,4 C 4,4 C 2,2 C 61 % 0 lf 1034,4 hPa 0,0 l/m 2 min 0 min 62 W/m 18,8 km/h (3 Bft) 93,62 %
16.02.2016 16:50 4,4 C 4,4 C 2,2 C 61 % 0 lf 1034,4 hPa 0,0 l/m 0 min 0 min 57 W/m 12,6 km/h (3 Bft) 91,49 %
16.02.2016 16:52 4,4 C 4,4 C 2,2 C 62 % 0 lf 1034,4 hPa 0,0 l/m 0 min 0 min 52 W/m 14,6 km/h (3 Bft) 95,74 %
16.02.2016 16:54 4,3 C 4,4 C 2,2 C 62 % 0 lf 1034,4 hPa 0,0 l/m 0 min 0 min 48 W/m 16,7 km/h (3 Bft) 87,23 %
16.02.2016 16:56 4,3 C 4,4 C 2,2 C 62 % 0 lf 1034,4 hPa 0,0 l/m 0 min 0 min 44 W/m 16,7 km/h (3 Bft) 95,74 %
16.02.2016 16:58 4,3 C 4,4 C 2,2 C 62 % 0 lf 1034,5 hPa 0,0 l/m 0 min 0 min 41 W/m 14,6 km/h (3 Bft) 91,30 %
16.02.2016 17:00 4,2 C 4,4 C 2,2 C 62 % 0 lf 1034,3 hPa 0,0 l/m 0 min 0 min 38 W/m 16,7 km/h (3 Bft) 93,62 %
16.02.2016 17:02 4,2 C 4,4 C 2,2 C 62 % 0 lf 1034,3 hPa 0,0 l/m 0 min 0 min 36 W/m 14,6 km/h (3 Bft) 89,36 %
16.02.2016 17:04 4,2 C 3,9 C 1,7 C 63 % 0 lf 1034,3 hPa 0,0 l/m 0 min 0 min 33 W/m 14,6 km/h (3 Bft) 91,49 %
16.02.2016 17:06 4,2 C 3,9 C 1,7 C 63 % 0 lf 1034,3 hPa 0,0 l/m 0 min 0 min 31 W/m 12,6 km/h (3 Bft) 93,62 %
16.02.2016 17:08 4,1 C 3,9 C 1,7 C 63 % 0 lf 1034,3 hPa 0,0 l/m 0 min 0 min 29 W/m 14,6 km/h (3 Bft) 97,87 %
16.02.2016 17:10 4,1 C 3,9 C 1,7 C 63 % 0 lf 1034,2 hPa 0,0 l/m 0 min 0 min 28 W/m 14,6 km/h (3 Bft) 97,83 %
16.02.2016 17:12 4,1 C 3,9 C 1,7 C 63 % 0 lf 1034,2 hPa 0,0 l/m 0 min 0 min 27 W/m 14,6 km/h (3 Bft) 95,74 %
16.02.2016 17:14 4,0 C 3,9 C 1,7 C 63 % 0 lf 1034,1 hPa 0,0 l/m 0 min 0 min 26 W/m 14,6 km/h (3 Bft) 97,87 %
16.02.2016 17:16 4,0 C 3,9 C 1,7 C 64 % 0 lf 1034,1 hPa 0,0 l/m 0 min 0 min 25 W/m 14,6 km/h (3 Bft) 100,00 %
16.02.2016 17:18 3,9 C 3,9 C 1,7 C 64 % 0 lf 1034,1 hPa 0,0 l/m 0 min 0 min 23 W/m 14,6 km/h (3 Bft) 100,00 %
16.02.2016 17:20 3,9 C 3,9 C 1,7 C 64 % 0 lf 1034,2 hPa 0,0 l/m 0 min 0 min 23 W/m 14,6 km/h (3 Bft) 97,83 %
16.02.2016 17:22 3,9 C 3,9 C 1,7 C 64 % 0 lf 1034,2 hPa 0,0 l/m 0 min 0 min 23 W/m 14,6 km/h (3 Bft) 100,00 %
16.02.2016 17:24 3,8 C 3,9 C 1,7 C 64 % 0 lf 1034,2 hPa 0,0 l/m 0 min 0 min 21 W/m 12,6 km/h (3 Bft) 100,00 %
16.02.2016 17:26 3,8 C 3,9 C 1,7 C 64 % 0 lf 1034,2 hPa 0,0 l/m 0 min 0 min 20 W/m 10,5 km/h (2 Bft) 100,00 %
16.02.2016 17:28 3,8 C 3,3 C 1,1 C 64 % 0 lf 1034,2 hPa 0,0 l/m 2 min 0 min 19 W/m 6,3 km/h (2 Bft) 100,00 %
16.02.2016 17:30 3,8 C 3,3 C 1,1 C 65 % 0 lf 1034,2 hPa 0,0 l/m 0 min 0 min 18 W/m 8,4 km/h (2 Bft) 93,62 %
16.02.2016 17:32 3,7 C 2,8 C 0,6 C 65 % 0 lf 1034,2 hPa 0,0 l/m 0 min 0 min 18 W/m 10,5 km/h (2 Bft) 100,00 %
16.02.2016 17:34 3,7 C 2,8 C 0,6 C 65 % 0 lf 1034,2 hPa 0,0 l/m 0 min 0 min 16 W/m 6,3 km/h (2 Bft) 100,00 %
16.02.2016 17:36 3,7 C 2,8 C 0,0 C 66 % 0 lf 1034,1 hPa 0,0 l/m 0 min 0 min 15 W/m 10,5 km/h (2 Bft) 100,00 %
16.02.2016 17:38 3,6 C 2,8 C 0,0 C 66 % 0 lf 1034,1 hPa 0,0 l/m 0 min 0 min 14 W/m 14,6 km/h (3 Bft) 100,00 %
16.02.2016 17:40 3,6 C 2,8 C 0,0 C 66 % 0 lf 1034,1 hPa 0,0 l/m 0 min 0 min 12 W/m 14,6 km/h (3 Bft) 100,00 %
16.02.2016 17:42 3,4 C 2,8 C 0,0 C 66 % 0 lf 1034,0 hPa 0,0 l/m 0 min 0 min 11 W/m 10,5 km/h (2 Bft) 97,87 %
16.02.2016 17:44 3,4 C 2,8 C 0,0 C 66 % 0 lf 1034,0 hPa 0,0 l/m 0 min 0 min 11 W/m 10,5 km/h (2 Bft) 97,83 %
16.02.2016 17:46 3,3 C 2,2 C 0,0 C 66 % 0 lf 1034,1 hPa 0,0 l/m 0 min 0 min 9 W/m 4,2 km/h (1 Bft) 97,87 %
16.02.2016 17:48 3,3 C 2,2 C 0,0 C 67 % 0 lf 1034,0 hPa 0,0 l/m 0 min 0 min 8 W/m 6,3 km/h (2 Bft) 95,74 %
16.02.2016 17:50 3,2 C 1,7 C 0,0 C 67 % 0 lf 1034,1 hPa 0,0 l/m 0 min 0 min 7 W/m 8,4 km/h (2 Bft) 97,87 %
16.02.2016 17:52 3,2 C 1,7 C -0,6 C 67 % 0 lf 1034,1 hPa 0,0 l/m 0 min 0 min 6 W/m 6,3 km/h (2 Bft) 100,00 %
16.02.2016 17:54 3,2 C 1,1 C -0,6 C 67 % 0 lf 1034,1 hPa 0,0 l/m 0 min 0 min 5 W/m 6,3 km/h (2 Bft) 100,00 %
16.02.2016 17:56 3,1 C 1,1 C -0,6 C 67 % 0 lf 1034,1 hPa 0,0 l/m 0 min 0 min 3 W/m 6,3 km/h (2 Bft) 97,83 %
16.02.2016 17:58 3,0 C 1,1 C -1,1 C 67 % 0 lf 1034,2 hPa 0,0 l/m 0 min 0 min 0 W/m 6,3 km/h (2 Bft) 97,87 %
16.02.2016 18:00 2,9 C 1,1 C -1,1 C 67 % 0 lf 1034,2 hPa 0,0 l/m 0 min 0 min 0 W/m 6,3 km/h (2 Bft) 95,74 %
16.02.2016 18:02 2,9 C 1,1 C -1,1 C 67 % 0 lf 1034,2 hPa 0,0 l/m 0 min 0 min 0 W/m 6,3 km/h (2 Bft) 95,74 %
16.02.2016 18:04 2,8 C 1,1 C -1,7 C 68 % 0 lf 1034,2 hPa 0,0 l/m 0 min 0 min 0 W/m 6,3 km/h (2 Bft) 96,00 %
16.02.2016 18:06 2,8 C 0,6 C -1,7 C 68 % 0 lf 1034,3 hPa 0,0 l/m 0 min 0 min 0 W/m 6,3 km/h (2 Bft) 97,87 %
16.02.2016 18:08 2,7 C 0,6 C -1,7 C 68 % 0 lf 1034,3 hPa 0,0 l/m 0 min 0 min 0 W/m 6,3 km/h (2 Bft) 97,87 %
16.02.2016 18:10 2,6 C 0,6 C -1,7 C 68 % 0 lf 1034,4 hPa 0,0 l/m 0 min 0 min 0 W/m 6,3 km/h (2 Bft) 95,74 %
16.02.2016 18:12 2,6 C 0,6 C -1,7 C 68 % 0 lf 1034,4 hPa 0,0 l/m 0 min 0 min 0 W/m 6,3 km/h (2 Bft) 97,87 %
16.02.2016 18:14 2,5 C 0,6 C -1,7 C 68 % 0 lf 1034,4 hPa 0,0 l/m 0 min 0 min 0 W/m 6,3 km/h (2 Bft) 95,65 %
16.02.2016 18:16 2,4 C 0,0 C -2,2 C 68 % 0 lf 1034,5 hPa 0,0 l/m 0 min 0 min 0 W/m 6,3 km/h (2 Bft) 91,49 %
16.02.2016 18:18 2,3 C 0,0 C -2,2 C 69 % 0 lf 1034,4 hPa 0,0 l/m 0 min 0 min 0 W/m 6,3 km/h (2 Bft) 97,87 %
16.02.2016 18:20 2,3 C 0,0 C -2,2 C 69 % 0 lf 1034,4 hPa 0,0 l/m 0 min 0 min 0 W/m 6,3 km/h (2 Bft) 95,74 %
16.02.2016 18:22 2,2 C 0,0 C -2,2 C 69 % 0 lf 1034,5 hPa 0,0 l/m 0 min 0 min 0 W/m 4,2 km/h (1 Bft) 95,74 %
16.02.2016 18:24 2,1 C 0,0 C -2,2 C 69 % 0 lf 1034,5 hPa 0,0 l/m 0 min 0 min 0 W/m 6,3 km/h (2 Bft) 95,74 %
16.02.2016 18:26 2,1 C 0,0 C -2,2 C 70 % 0 lf 1034,6 hPa 0,0 l/m 0 min 0 min 0 W/m 6,3 km/h (2 Bft) 95,65 %
16.02.2016 18:28 2,0 C 0,0 C -2,2 C 70 % 0 lf 1034,5 hPa 0,0 l/m 0 min 0 min 0 W/m 6,3 km/h (2 Bft) 100,00 %
16.02.2016 18:30 1,9 C -0,6 C -2,2 C 70 % 0 lf 1034,6 hPa 0,0 l/m 0 min 0 min 0 W/m 6,3 km/h (2 Bft) 97,87 %
16.02.2016 18:32 1,9 C -0,6 C -2,2 C 70 % 0 lf 1034,6 hPa 0,0 l/m 0 min 0 min 0 W/m 6,3 km/h (2 Bft) 97,87 %
16.02.2016 18:34 1,8 C -0,6 C -2,2 C 70 % 0 lf 1034,6 hPa 0,0 l/m 0 min 0 min 0 W/m 6,3 km/h (2 Bft) 100,00 %
16.02.2016 18:36 1,7 C -0,6 C -2,2 C 71 % 0 lf 1034,6 hPa 0,0 l/m 0 min 0 min 0 W/m 8,4 km/h (2 Bft) 97,87 %
16.02.2016 18:38 1,7 C -0,6 C -2,8 C 71 % 0 lf 1034,5 hPa 0,0 l/m 0 min 0 min 0 W/m 8,4 km/h (2 Bft) 100,00 %
16.02.2016 18:40 1,6 C -0,6 C -2,8 C 71 % 0 lf 1034,5 hPa 0,0 l/m 0 min 0 min 0 W/m 6,3 km/h (2 Bft) 97,87 %
16.02.2016 18:42 1,5 C -0,6 C -2,8 C 71 % 0 lf 1034,5 hPa 0,0 l/m 0 min 0 min 0 W/m 8,4 km/h (2 Bft) 97,87 %
16.02.2016 18:44 1,4 C -1,1 C -2,8 C 71 % 0 lf 1034,5 hPa 0,0 l/m 0 min 0 min 0 W/m 8,4 km/h (2 Bft) 100,00 %
16.02.2016 18:46 1,4 C -1,1 C -2,8 C 72 % 0 lf 1034,5 hPa 0,0 l/m 0 min 0 min 0 W/m 8,4 km/h (2 Bft) 100,00 %
16.02.2016 18:48 1,3 C -0,6 C -2,8 C 72 % 0 lf 1034,4 hPa 0,0 l/m 0 min 0 min 0 W/m 10,5 km/h (2 Bft) 97,87 %
16.02.2016 18:50 1,3 C 0,0 C -2,8 C 72 % 0 lf 1034,5 hPa 0,0 l/m 0 min 0 min 0 W/m 10,5 km/h (2 Bft) 95,65 %
16.02.2016 18:52 1,2 C -0,6 C -2,8 C 72 % 0 lf 1034,4 hPa 0,0 l/m 0 min 0 min 0 W/m 8,4 km/h (2 Bft) 100,00 %
16.02.2016 18:54 1,1 C 0,0 C -2,8 C 73 % 0 lf 1034,4 hPa 0,0 l/m 0 min 0 min 0 W/m 8,4 km/h (2 Bft) 97,87 %
16.02.2016 18:56 1,1 C 0,0 C -2,8 C 73 % 0 lf 1034,4 hPa 0,0 l/m 0 min 0 min 0 W/m 8,4 km/h (2 Bft) 95,74 %
16.02.2016 18:58 1,0 C 0,0 C -2,8 C 73 % 0 lf 1034,3 hPa 0,0 l/m 0 min 0 min 0 W/m 8,4 km/h (2 Bft) 95,74 %
16.02.2016 19:00 0,9 C 0,0 C -2,8 C 73 % 0 lf 1034,3 hPa 0,0 l/m 0 min 0 min 0 W/m 8,4 km/h (2 Bft) 95,74 %
16.02.2016 19:02 0,9 C 0,0 C -2,8 C 74 % 0 lf 1034,3 hPa 0,0 l/m 0 min 0 min 0 W/m 10,5 km/h (2 Bft) 97,83 %
16.02.2016 19:04 0,8 C 0,0 C -2,8 C 74 % 0 lf 1034,3 hPa 0,0 l/m 0 min 0 min 0 W/m 6,3 km/h (2 Bft) 95,74 %
16.02.2016 19:06 0,8 C 0,0 C -2,8 C 74 % 0 lf 1034,3 hPa 0,0 l/m 0 min 0 min 0 W/m 10,5 km/h (2 Bft) 95,74 %
16.02.2016 19:08 0,7 C 0,6 C -2,2 C 74 % 0 lf 1034,3 hPa 0,0 l/m 0 min 0 min 0 W/m 12,6 km/h (3 Bft) 95,74 %
16.02.2016 19:10 0,7 C 0,6 C -2,2 C 74 % 0 lf 1034,2 hPa 0,0 l/m 0 min 0 min 0 W/m 14,6 km/h (3 Bft) 95,74 %
16.02.2016 19:12 0,6 C 0,6 C -2,2 C 75 % 0 lf 1034,3 hPa 0,0 l/m 0 min 0 min 0 W/m 12,6 km/h (3 Bft) 91,49 %
16.02.2016 19:14 0,6 C 1,1 C -1,7 C 75 % 0 lf 1034,2 hPa 0,0 l/m 0 min 0 min 0 W/m 12,6 km/h (3 Bft) 97,83 %
16.02.2016 19:16 0,5 C 1,1 C -1,7 C 75 % 0 lf 1034,2 hPa 0,0 l/m 0 min 0 min 0 W/m 14,6 km/h (3 Bft) 93,62 %
16.02.2016 19:18 0,5 C 1,1 C -1,1 C 75 % 0 lf 1034,2 hPa 0,0 l/m 0 min 0 min 0 W/m 10,5 km/h (2 Bft) 95,74 %
16.02.2016 19:20 0,5 C 1,1 C -1,1 C 75 % 0 lf 1034,2 hPa 0,0 l/m 0 min 0 min 0 W/m 10,5 km/h (2 Bft) 95,83 %
16.02.2016 19:22 0,5 C 1,1 C -1,1 C 75 % 0 lf 1034,2 hPa 0,0 l/m 0 min 0 min 0 W/m 10,5 km/h (2 Bft) 97,87 %
16.02.2016 19:24 0,5 C 1,1 C -1,1 C 76 % 0 lf 1034,2 hPa 0,0 l/m 0 min 0 min 0 W/m 8,4 km/h (2 Bft) 97,83 %
16.02.2016 19:26 0,6 C 1,1 C -1,1 C 76 % 0 lf 1034,2 hPa 0,0 l/m 0 min 0 min 0 W/m 14,6 km/h (3 Bft) 93,62 %
16.02.2016 19:28 0,6 C 0,6 C -1,1 C 76 % 0 lf 1034,2 hPa 0,0 l/m 0 min 0 min 0 W/m 10,5 km/h (2 Bft) 93,62 %
16.02.2016 19:30 0,6 C 0,6 C -1,1 C 76 % 0 lf 1034,2 hPa 0,0 l/m 0 min 0 min 0 W/m 6,3 km/h (2 Bft) 93,62 %
16.02.2016 19:32 0,5 C 0,6 C -1,7 C 76 % 0 lf 1034,2 hPa 0,0 l/m 0 min 0 min 0 W/m 14,6 km/h (3 Bft) 93,62 %
16.02.2016 19:34 0,5 C 0,6 C -1,7 C 76 % 0 lf 1034,2 hPa 0,0 l/m 0 min 0 min 0 W/m 12,6 km/h (3 Bft) 91,49 %
16.02.2016 19:36 0,6 C 0,6 C -1,1 C 76 % 0 lf 1034,1 hPa 0,0 l/m 0 min 0 min 0 W/m 14,6 km/h (3 Bft) 93,48 %
16.02.2016 19:38 0,5 C 0,6 C -1,1 C 76 % 0 lf 1034,1 hPa 0,0 l/m 0 min 0 min 0 W/m 12,6 km/h (3 Bft) 89,36 %
16.02.2016 19:40 0,5 C 0,6 C -1,1 C 76 % 0 lf 1034,0 hPa 0,0 l/m 0 min 0 min 0 W/m 18,8 km/h (3 Bft) 93,62 %
16.02.2016 19:42 0,6 C 0,6 C -1,1 C 76 % 0 lf 1034,0 hPa 0,0 l/m 0 min 0 min 0 W/m 14,6 km/h (3 Bft) 91,49 %
16.02.2016 19:44 0,6 C 0,6 C -1,1 C 76 % 0 lf 1034,0 hPa 0,0 l/m 0 min 0 min 0 W/m 12,6 km/h (3 Bft) 95,74 %
16.02.2016 19:46 0,5 C 0,6 C -1,1 C 76 % 0 lf 1034,0 hPa 0,0 l/m 0 min 0 min 0 W/m 14,6 km/h (3 Bft) 91,49 %
16.02.2016 19:48 0,5 C 0,6 C -1,1 C 76 % 0 lf 1034,0 hPa 0,0 l/m 0 min 0 min 0 W/m 12,6 km/h (3 Bft) 95,65 %
16.02.2016 19:50 0,5 C 0,6 C -1,1 C 76 % 0 lf 1033,9 hPa 0,0 l/m 0 min 0 min 0 W/m 14,6 km/h (3 Bft) 93,62 %
16.02.2016 19:52 0,5 C 0,6 C -1,1 C 75 % 0 lf 1034,0 hPa 0,0 l/m 0 min 0 min 0 W/m 14,6 km/h (3 Bft) 93,62 %
16.02.2016 19:54 0,5 C 0,6 C -1,7 C 75 % 0 lf 1034,0 hPa 0,0 l/m 0 min 0 min 0 W/m 12,6 km/h (3 Bft) 91,49 %
16.02.2016 19:56 0,5 C 0,0 C -1,7 C 76 % 0 lf 1034,0 hPa 0,0 l/m 0 min 0 min 0 W/m 12,6 km/h (3 Bft) 89,36 %
16.02.2016 19:58 0,5 C 0,6 C -1,7 C 76 % 0 lf 1034,0 hPa 0,0 l/m 0 min 0 min 0 W/m 12,6 km/h (3 Bft) 91,49 %
16.02.2016 20:00 0,5 C 0,6 C -1,7 C 76 % 0 lf 1034,0 hPa 0,0 l/m 0 min 0 min 0 W/m 16,7 km/h (3 Bft) 91,30 %
16.02.2016 20:02 0,5 C 0,6 C -1,7 C 76 % 0 lf 1034,0 hPa 0,0 l/m 0 min 0 min 0 W/m 10,5 km/h (2 Bft) 87,23 %
16.02.2016 20:04 0,5 C 0,6 C -1,7 C 76 % 0 lf 1034,0 hPa 0,0 l/m 0 min 0 min 0 W/m 12,6 km/h (3 Bft) 93,62 %
16.02.2016 20:06 0,5 C 0,0 C -1,7 C 76 % 0 lf 1034,0 hPa 0,0 l/m 0 min 0 min 0 W/m 14,6 km/h (3 Bft) 91,49 %
16.02.2016 20:08 0,5 C 0,0 C -1,7 C 76 % 0 lf 1034,1 hPa 0,0 l/m 0 min 0 min 0 W/m 10,5 km/h (2 Bft) 91,49 %
16.02.2016 20:10 0,4 C 0,0 C -1,7 C 76 % 0 lf 1034,1 hPa 0,0 l/m 0 min 0 min 0 W/m 10,5 km/h (2 Bft) 91,49 %
16.02.2016 20:12 0,4 C 0,0 C -1,7 C 76 % 0 lf 1034,1 hPa 0,0 l/m 0 min 0 min 0 W/m 14,6 km/h (3 Bft) 93,48 %
16.02.2016 20:14 0,4 C 0,0 C -1,7 C 76 % 0 lf 1034,1 hPa 0,0 l/m 0 min 0 min 0 W/m 14,6 km/h (3 Bft) 91,49 %
16.02.2016 20:16 0,4 C 0,0 C -1,7 C 77 % 0 lf 1034,0 hPa 0,0 l/m 0 min 0 min 0 W/m 16,7 km/h (3 Bft) 93,62 %
16.02.2016 20:18 0,3 C 0,0 C -1,7 C 77 % 0 lf 1033,9 hPa 0,0 l/m 0 min 0 min 0 W/m 12,6 km/h (3 Bft) 93,62 %
16.02.2016 20:20 0,3 C 0,0 C -1,7 C 77 % 0 lf 1033,8 hPa 0,0 l/m 0 min 0 min 0 W/m 14,6 km/h (3 Bft) 87,23 %
16.02.2016 20:22 0,3 C 0,0 C -1,7 C 77 % 0 lf 1033,8 hPa 0,0 l/m 0 min 0 min 0 W/m 16,7 km/h (3 Bft) 93,62 %
16.02.2016 20:24 0,3 C 0,0 C -1,7 C 77 % 0 lf 1033,8 hPa 0,0 l/m 0 min 0 min 0 W/m 18,8 km/h (3 Bft) 93,48 %
16.02.2016 20:26 0,3 C 0,6 C -1,7 C 78 % 0 lf 1033,8 hPa 0,0 l/m 0 min 0 min 0 W/m 14,6 km/h (3 Bft) 95,74 %
16.02.2016 20:28 0,2 C 0,0 C -1,7 C 78 % 0 lf 1033,7 hPa 0,0 l/m 0 min 0 min 0 W/m 12,6 km/h (3 Bft) 93,62 %
16.02.2016 20:30 0,2 C 0,0 C -1,7 C 78 % 0 lf 1033,8 hPa 0,0 l/m 0 min 0 min 0 W/m 16,7 km/h (3 Bft) 97,87 %
16.02.2016 20:32 0,2 C 0,0 C -1,7 C 78 % 0 lf 1033,8 hPa 0,0 l/m 0 min 0 min 0 W/m 10,5 km/h (2 Bft) 95,74 %
16.02.2016 20:34 0,2 C 0,0 C -2,2 C 78 % 0 lf 1033,9 hPa 0,0 l/m 0 min 0 min 0 W/m 10,5 km/h (2 Bft) 97,83 %
16.02.2016 20:36 0,2 C -0,6 C -2,2 C 78 % 0 lf 1033,8 hPa 0,0 l/m 0 min 0 min 0 W/m 12,6 km/h (3 Bft) 93,62 %
16.02.2016 20:38 0,1 C -0,6 C -2,2 C 78 % 0 lf 1033,7 hPa 0,0 l/m 0 min 0 min 0 W/m 10,5 km/h (2 Bft) 93,62 %
16.02.2016 20:40 0,1 C 0,0 C -2,2 C 78 % 0 lf 1033,7 hPa 0,0 l/m 0 min 0 min 0 W/m 14,6 km/h (3 Bft) 97,87 %
16.02.2016 20:42 0,1 C 0,0 C -1,7 C 78 % 0 lf 1033,7 hPa 0,0 l/m 0 min 0 min 0 W/m 14,6 km/h (3 Bft) 95,74 %
16.02.2016 20:44 0,0 C 0,0 C -1,7 C 78 % 0 lf 1033,6 hPa 0,0 l/m 0 min 0 min 0 W/m 14,6 km/h (3 Bft) 95,74 %
16.02.2016 20:46 0,0 C 0,0 C -1,7 C 79 % 0 lf 1033,6 hPa 0,0 l/m 0 min 0 min 0 W/m 18,8 km/h (3 Bft) 97,83 %
16.02.2016 20:48 0,0 C 0,0 C -1,7 C 79 % 0 lf 1033,7 hPa 0,0 l/m 0 min 0 min 0 W/m 12,6 km/h (3 Bft) 95,74 %
16.02.2016 20:50 -0,1 C 0,0 C -1,7 C 79 % 0 lf 1033,7 hPa 0,0 l/m 0 min 0 min 0 W/m 20,9 km/h (4 Bft) 97,87 %
16.02.2016 20:52 -0,1 C 0,0 C -1,7 C 79 % 0 lf 1033,6 hPa 0,0 l/m 0 min 0 min 0 W/m 14,6 km/h (3 Bft) 95,74 %
16.02.2016 20:54 -0,1 C 0,0 C -1,7 C 79 % 0 lf 1033,6 hPa 0,0 l/m 0 min 0 min 0 W/m 16,7 km/h (3 Bft) 97,87 %
16.02.2016 20:56 -0,1 C 0,0 C -1,7 C 80 % 0 lf 1033,6 hPa 0,0 l/m 0 min 0 min 0 W/m 14,6 km/h (3 Bft) 97,87 %
16.02.2016 20:58 -0,1 C -0,6 C -1,7 C 80 % 0 lf 1033,6 hPa 0,0 l/m 0 min 0 min 0 W/m 6,3 km/h (2 Bft) 100,00 %
16.02.2016 21:00 -0,2 C -0,6 C -2,2 C 80 % 0 lf 1033,6 hPa 0,0 l/m 0 min 0 min 0 W/m 12,6 km/h (3 Bft) 97,87 %
16.02.2016 21:02 -0,2 C -0,6 C -2,2 C 80 % 0 lf 1033,6 hPa 0,0 l/m 0 min 0 min 0 W/m 12,6 km/h (3 Bft) 93,62 %
16.02.2016 21:04 -0,2 C -0,6 C -2,2 C 80 % 0 lf 1033,6 hPa 0,0 l/m 0 min 0 min 0 W/m 10,5 km/h (2 Bft) 97,87 %
16.02.2016 21:06 -0,2 C -0,6 C -2,2 C 80 % 0 lf 1033,6 hPa 0,0 l/m 0 min 0 min 0 W/m 14,6 km/h (3 Bft) 100,00 %
16.02.2016 21:08 -0,3 C -0,6 C -2,2 C 80 % 0 lf 1033,6 hPa 0,0 l/m 0 min 0 min 0 W/m 14,6 km/h (3 Bft) 93,62 %
16.02.2016 21:10 -0,3 C -0,6 C -2,2 C 80 % 0 lf 1033,5 hPa 0,0 l/m 0 min 0 min 0 W/m 14,6 km/h (3 Bft) 97,83 %
16.02.2016 21:12 -0,3 C -0,6 C -2,2 C 80 % 0 lf 1033,5 hPa 0,0 l/m 0 min 0 min 0 W/m 12,6 km/h (3 Bft) 97,87 %
16.02.2016 21:14 -0,3 C -0,6 C -2,2 C 81 % 0 lf 1033,5 hPa 0,0 l/m 0 min 0 min 0 W/m 12,6 km/h (3 Bft) 100,00 %
16.02.2016 21:16 -0,4 C -0,6 C -2,2 C 81 % 0 lf 1033,5 hPa 0,0 l/m 0 min 0 min 0 W/m 12,6 km/h (3 Bft) 95,74 %
16.02.2016 21:18 -0,4 C -0,6 C -2,2 C 81 % 0 lf 1033,5 hPa 0,0 l/m 0 min 0 min 0 W/m 8,4 km/h (2 Bft) 97,87 %
16.02.2016 21:20 -0,4 C -1,1 C -2,2 C 81 % 0 lf 1033,4 hPa 0,0 l/m 0 min 0 min 0 W/m 10,5 km/h (2 Bft) 97,87 %
16.02.2016 21:22 -0,4 C -1,1 C -2,2 C 81 % 0 lf 1033,4 hPa 0,0 l/m 0 min 0 min 0 W/m 10,5 km/h (2 Bft) 100,00 %
16.02.2016 21:24 -0,5 C -1,1 C -2,8 C 81 % 0 lf 1033,4 hPa 0,0 l/m 0 min 0 min 0 W/m 10,5 km/h (2 Bft) 97,87 %
16.02.2016 21:26 -0,5 C -1,1 C -2,2 C 81 % 0 lf 1033,5 hPa 0,0 l/m 0 min 0 min 0 W/m 6,3 km/h (2 Bft) 95,74 %
16.02.2016 21:28 -0,6 C -1,1 C -2,2 C 81 % 0 lf 1033,5 hPa 0,0 l/m 0 min 0 min 0 W/m 6,3 km/h (2 Bft) 93,62 %
16.02.2016 21:30 -0,6 C -1,1 C -2,2 C 82 % 0 lf 1033,5 hPa 0,0 l/m 0 min 0 min 0 W/m 10,5 km/h (2 Bft) 97,87 %
16.02.2016 21:32 -0,6 C -1,1 C -2,8 C 81 % 0 lf 1033,5 hPa 0,0 l/m 0 min 0 min 0 W/m 10,5 km/h (2 Bft) 97,87 %
16.02.2016 21:34 -0,6 C -1,1 C -2,8 C 82 % 0 lf 1033,5 hPa 0,0 l/m 0 min 0 min 0 W/m 6,3 km/h (2 Bft) 97,83 %
16.02.2016 21:36 -0,7 C -1,1 C -2,8 C 82 % 0 lf 1033,5 hPa 0,0 l/m 0 min 0 min 0 W/m 6,3 km/h (2 Bft) 95,74 %
16.02.2016 21:38 -0,7 C -1,1 C -2,8 C 82 % 0 lf 1033,4 hPa 0,0 l/m 0 min 0 min 0 W/m 10,5 km/h (2 Bft) 97,87 %
16.02.2016 21:40 -0,7 C -1,1 C -2,8 C 82 % 0 lf 1033,4 hPa 0,0 l/m 0 min 0 min 0 W/m 10,5 km/h (2 Bft) 95,74 %
16.02.2016 21:42 -0,7 C -1,1 C -2,8 C 82 % 0 lf 1033,4 hPa 0,0 l/m 0 min 0 min 0 W/m 6,3 km/h (2 Bft) 95,74 %
16.02.2016 21:44 -0,8 C -1,1 C -2,8 C 82 % 0 lf 1033,4 hPa 0,0 l/m 0 min 0 min 0 W/m 6,3 km/h (2 Bft) 97,83 %
16.02.2016 21:46 -0,8 C -1,7 C -2,8 C 82 % 0 lf 1033,4 hPa 0,0 l/m 0 min 0 min 0 W/m 6,3 km/h (2 Bft) 97,87 %
16.02.2016 21:48 -0,8 C -1,7 C -2,8 C 83 % 0 lf 1033,4 hPa 0,0 l/m 0 min 0 min 0 W/m 6,3 km/h (2 Bft) 97,87 %
16.02.2016 21:50 -0,8 C -1,7 C -3,3 C 83 % 0 lf 1033,4 hPa 0,0 l/m 0 min 0 min 0 W/m 4,2 km/h (1 Bft) 95,74 %
16.02.2016 21:52 -0,9 C -1,7 C -3,3 C 83 % 0 lf 1033,4 hPa 0,0 l/m 0 min 0 min 0 W/m 10,5 km/h (2 Bft) 97,87 %
16.02.2016 21:54 -0,9 C -1,7 C -3,3 C 83 % 0 lf 1033,4 hPa 0,0 l/m 0 min 0 min 0 W/m 6,3 km/h (2 Bft) 95,74 %
16.02.2016 21:56 -0,9 C -1,7 C -2,8 C 82 % 0 lf 1033,4 hPa 0,0 l/m 0 min 0 min 0 W/m 6,3 km/h (2 Bft) 93,48 %
16.02.2016 21:58 -0,9 C -1,1 C -2,8 C 83 % 0 lf 1033,4 hPa 0,0 l/m 0 min 0 min 0 W/m 12,6 km/h (3 Bft) 95,74 %
16.02.2016 22:00 -1,0 C -1,1 C -2,8 C 83 % 0 lf 1033,3 hPa 0,0 l/m 0 min 0 min 0 W/m 6,3 km/h (2 Bft) 95,74 %
16.02.2016 22:02 -1,0 C -1,1 C -2,8 C 83 % 0 lf 1033,4 hPa 0,0 l/m 0 min 0 min 0 W/m 14,6 km/h (3 Bft) 93,62 %
16.02.2016 22:04 -1,1 C -1,1 C -2,8 C 83 % 0 lf 1033,3 hPa 0,0 l/m 0 min 0 min 0 W/m 12,6 km/h (3 Bft) 97,87 %
16.02.2016 22:06 -1,1 C -1,1 C -2,8 C 83 % 0 lf 1033,3 hPa 0,0 l/m 0 min 0 min 0 W/m 10,5 km/h (2 Bft) 95,74 %
16.02.2016 22:08 -1,1 C -1,1 C -2,8 C 84 % 0 lf 1033,1 hPa 0,0 l/m 0 min 0 min 0 W/m 12,6 km/h (3 Bft) 97,83 %
16.02.2016 22:10 -1,1 C -1,1 C -2,8 C 84 % 0 lf 1033,0 hPa 0,0 l/m 0 min 0 min 0 W/m 10,5 km/h (2 Bft) 97,87 %
16.02.2016 22:12 -1,1 C -1,1 C -2,8 C 84 % 0 lf 1033,1 hPa 0,0 l/m 0 min 0 min 0 W/m 6,3 km/h (2 Bft) 95,74 %
16.02.2016 22:14 -1,1 C -1,1 C -2,8 C 84 % 0 lf 1033,0 hPa 0,0 l/m 0 min 0 min 0 W/m 10,5 km/h (2 Bft) 95,74 %
16.02.2016 22:16 -1,2 C -1,1 C -2,8 C 84 % 0 lf 1033,1 hPa 0,0 l/m 0 min 0 min 0 W/m 14,6 km/h (3 Bft) 97,87 %
16.02.2016 22:18 -1,2 C -1,1 C -2,8 C 84 % 0 lf 1033,1 hPa 0,0 l/m 0 min 0 min 0 W/m 14,6 km/h (3 Bft) 97,87 %
16.02.2016 22:20 -1,2 C -1,1 C -2,8 C 85 % 0 lf 1033,0 hPa 0,0 l/m 0 min 0 min 0 W/m 12,6 km/h (3 Bft) 97,83 %
16.02.2016 22:22 -1,2 C -1,1 C -2,8 C 85 % 0 lf 1032,9 hPa 0,0 l/m 0 min 0 min 0 W/m 14,6 km/h (3 Bft) 97,87 %
16.02.2016 22:24 -1,2 C -1,1 C -2,8 C 85 % 0 lf 1032,9 hPa 0,0 l/m 0 min 0 min 0 W/m 14,6 km/h (3 Bft) 97,87 %
16.02.2016 22:26 -1,2 C -1,1 C -2,8 C 85 % 0 lf 1032,9 hPa 0,0 l/m 0 min 0 min 0 W/m 10,5 km/h (2 Bft) 97,87 %
16.02.2016 22:28 -1,2 C -1,1 C -2,2 C 85 % 0 lf 1032,8 hPa 0,0 l/m 0 min 0 min 0 W/m 16,7 km/h (3 Bft) 100,00 %
16.02.2016 22:30 -1,2 C -1,1 C -2,8 C 85 % 0 lf 1032,8 hPa 0,0 l/m 0 min 0 min 0 W/m 14,6 km/h (3 Bft) 97,83 %
16.02.2016 22:32 -1,2 C -1,1 C -2,8 C 85 % 0 lf 1032,9 hPa 0,0 l/m 0 min 0 min 0 W/m 8,4 km/h (2 Bft) 95,74 %
16.02.2016 22:34 -1,2 C -1,1 C -2,2 C 85 % 0 lf 1032,9 hPa 0,0 l/m 0 min 0 min 0 W/m 14,6 km/h (3 Bft) 95,92 %
16.02.2016 22:36 -1,2 C -1,1 C -2,8 C 86 % 0 lf 1032,8 hPa 0,0 l/m 0 min 0 min 0 W/m 10,5 km/h (2 Bft) 95,74 %
16.02.2016 22:38 -1,2 C -1,1 C -2,8 C 86 % 0 lf 1032,8 hPa 0,0 l/m 0 min 0 min 0 W/m 12,6 km/h (3 Bft) 95,74 %
16.02.2016 22:40 -1,2 C -1,1 C -2,8 C 86 % 0 lf 1032,7 hPa 0,0 l/m 0 min 0 min 0 W/m 10,5 km/h (2 Bft) 97,87 %
16.02.2016 22:42 -1,2 C -1,1 C -2,8 C 86 % 0 lf 1032,7 hPa 0,0 l/m 0 min 0 min 0 W/m 12,6 km/h (3 Bft) 93,48 %
16.02.2016 22:44 -1,2 C -1,1 C -2,8 C 86 % 0 lf 1032,7 hPa 0,0 l/m 0 min 0 min 0 W/m 10,5 km/h (2 Bft) 95,74 %
16.02.2016 22:46 -1,2 C -1,1 C -2,8 C 86 % 0 lf 1032,6 hPa 0,0 l/m 0 min 0 min 0 W/m 6,3 km/h (2 Bft) 97,87 %
16.02.2016 22:48 -1,2 C -1,1 C -2,8 C 86 % 0 lf 1032,6 hPa 0,0 l/m 0 min 0 min 0 W/m 14,6 km/h (3 Bft) 97,87 %
16.02.2016 22:50 -1,2 C -1,1 C -2,8 C 86 % 0 lf 1032,5 hPa 0,0 l/m 0 min 0 min 0 W/m 14,6 km/h (3 Bft) 97,87 %
16.02.2016 22:52 -1,2 C -1,1 C -2,8 C 86 % 0 lf 1032,5 hPa 0,0 l/m 0 min 0 min 0 W/m 10,5 km/h (2 Bft) 95,74 %
16.02.2016 22:54 -1,2 C -1,1 C -2,8 C 86 % 0 lf 1032,6 hPa 0,0 l/m 0 min 0 min 0 W/m 10,5 km/h (2 Bft) 95,65 %
16.02.2016 22:56 -1,2 C -1,1 C -2,8 C 86 % 0 lf 1032,5 hPa 0,0 l/m 0 min 0 min 0 W/m 12,6 km/h (3 Bft) 97,87 %
16.02.2016 22:58 -1,2 C -1,1 C -2,8 C 86 % 0 lf 1032,5 hPa 0,0 l/m 0 min 0 min 0 W/m 6,3 km/h (2 Bft) 97,87 %
16.02.2016 23:00 -1,2 C -1,1 C -2,8 C 86 % 0 lf 1032,5 hPa 0,0 l/m 0 min 0 min 0 W/m 8,4 km/h (2 Bft) 95,74 %
16.02.2016 23:02 -1,2 C -1,1 C -2,8 C 86 % 0 lf 1032,4 hPa 0,0 l/m 0 min 0 min 0 W/m 8,4 km/h (2 Bft) 97,87 %
16.02.2016 23:04 -1,2 C -1,1 C -2,8 C 86 % 0 lf 1032,3 hPa 0,0 l/m 0 min 0 min 0 W/m 8,4 km/h (2 Bft) 95,74 %
16.02.2016 23:06 -1,2 C -1,1 C -2,8 C 86 % 0 lf 1032,4 hPa 0,0 l/m 0 min 0 min 0 W/m 6,3 km/h (2 Bft) 97,83 %
16.02.2016 23:08 -1,2 C -1,1 C -2,8 C 86 % 0 lf 1032,3 hPa 0,0 l/m 0 min 0 min 0 W/m 8,4 km/h (2 Bft) 95,74 %
16.02.2016 23:10 -1,2 C -1,1 C -2,8 C 86 % 0 lf 1032,3 hPa 0,0 l/m 0 min 0 min 0 W/m 8,4 km/h (2 Bft) 97,87 %
16.02.2016 23:12 -1,2 C -1,1 C -2,8 C 86 % 0 lf 1032,3 hPa 0,0 l/m 0 min 0 min 0 W/m 8,4 km/h (2 Bft) 97,87 %
16.02.2016 23:14 -1,2 C -1,1 C -2,2 C 86 % 0 lf 1032,2 hPa 0,0 l/m 0 min 0 min 0 W/m 8,4 km/h (2 Bft) 97,87 %
16.02.2016 23:16 -1,2 C -1,1 C -2,8 C 86 % 0 lf 1032,1 hPa 0,0 l/m 0 min 0 min 0 W/m 8,4 km/h (2 Bft) 91,30 %
16.02.2016 23:18 -1,2 C -1,1 C -2,8 C 86 % 0 lf 1032,2 hPa 0,0 l/m 0 min 0 min 0 W/m 6,3 km/h (2 Bft) 97,87 %
16.02.2016 23:20 -1,2 C -1,7 C -2,8 C 86 % 0 lf 1032,1 hPa 0,0 l/m 0 min 0 min 0 W/m 8,4 km/h (2 Bft) 95,74 %
16.02.2016 23:22 -1,2 C -1,7 C -2,8 C 86 % 0 lf 1032,1 hPa 0,0 l/m 0 min 0 min 0 W/m 10,5 km/h (2 Bft) 93,62 %
16.02.2016 23:24 -1,2 C -1,7 C -2,8 C 86 % 0 lf 1032,1 hPa 0,0 l/m 0 min 0 min 0 W/m 8,4 km/h (2 Bft) 100,00 %
16.02.2016 23:26 -1,3 C -1,7 C -2,8 C 86 % 0 lf 1032,1 hPa 0,0 l/m 0 min 0 min 0 W/m 6,3 km/h (2 Bft) 100,00 %
16.02.2016 23:28 -1,3 C -1,7 C -2,8 C 86 % 0 lf 1032,1 hPa 0,0 l/m 0 min 0 min 0 W/m 12,6 km/h (3 Bft) 97,83 %
16.02.2016 23:30 -1,3 C -1,7 C -3,3 C 86 % 0 lf 1032,1 hPa 0,0 l/m 0 min 0 min 0 W/m 8,4 km/h (2 Bft) 97,87 %
16.02.2016 23:32 -1,3 C -1,7 C -3,3 C 86 % 0 lf 1032,0 hPa 0,0 l/m 0 min 0 min 0 W/m 10,5 km/h (2 Bft) 97,87 %
16.02.2016 23:34 -1,3 C -1,7 C -2,8 C 86 % 0 lf 1032,0 hPa 0,0 l/m 0 min 0 min 0 W/m 10,5 km/h (2 Bft) 95,74 %
16.02.2016 23:36 -1,3 C -1,7 C -2,8 C 86 % 0 lf 1032,0 hPa 0,0 l/m 0 min 0 min 0 W/m 10,5 km/h (2 Bft) 95,74 %
16.02.2016 23:38 -1,3 C -1,7 C -3,3 C 86 % 0 lf 1032,0 hPa 0,0 l/m 0 min 0 min 0 W/m 8,4 km/h (2 Bft) 97,87 %
16.02.2016 23:40 -1,4 C -1,1 C -2,8 C 86 % 0 lf 1031,9 hPa 0,0 l/m 0 min 0 min 0 W/m 6,3 km/h (2 Bft) 100,00 %
16.02.2016 23:42 -1,4 C -1,7 C -2,8 C 86 % 0 lf 1031,9 hPa 0,0 l/m 0 min 0 min 0 W/m 6,3 km/h (2 Bft) 97,87 %
16.02.2016 23:44 -1,4 C -1,7 C -2,8 C 86 % 0 lf 1031,9 hPa 0,0 l/m 0 min 0 min 0 W/m 4,2 km/h (1 Bft) 93,62 %
16.02.2016 23:46 -1,4 C -1,7 C -3,3 C 86 % 0 lf 1031,9 hPa 0,0 l/m 0 min 0 min 0 W/m 8,4 km/h (2 Bft) 95,74 %
16.02.2016 23:48 -1,4 C -1,7 C -3,3 C 86 % 0 lf 1031,9 hPa 0,0 l/m 0 min 0 min 0 W/m 6,3 km/h (2 Bft) 95,74 %
16.02.2016 23:50 -1,4 C -1,7 C -3,3 C 86 % 0 lf 1031,9 hPa 0,0 l/m 0 min 0 min 0 W/m 8,4 km/h (2 Bft) 93,62 %
16.02.2016 23:52 -1,4 C -1,7 C -3,3 C 86 % 0 lf 1031,9 hPa 0,0 l/m 0 min 0 min 0 W/m 4,2 km/h (1 Bft) 91,30 %
16.02.2016 23:54 -1,4 C -1,7 C -3,3 C 86 % 0 lf 1031,9 hPa 0,0 l/m 0 min 0 min 0 W/m 4,2 km/h (1 Bft) 89,36 %
16.02.2016 23:56 -1,4 C -1,7 C -3,3 C 86 % 0 lf 1031,9 hPa 0,0 l/m 0 min 0 min 0 W/m 6,3 km/h (2 Bft) 91,49 %
16.02.2016 23:58 -1,4 C -1,7 C -3,3 C 86 % 0 lf 1031,9 hPa 0,0 l/m 0 min 0 min 0 W/m 6,3 km/h (2 Bft) 93,62 %
_ Min-Zeit 08:10 07:14 07:04 16:20 00:00 00:00 - - - - 00:00 02:34
Minimum _ -4,8 C -6,1 C -6,1 C 60 % 0 lf 1030,0 hPa - - - - 0,0 km/h (0 Bft) 83,33 %
_ Max-Zeit 15:18 12:58 11:50 10:22 10:32 10:22 00:00 08:06 09:38 12:30 14:06 00:14
Maximum _ 6,1 C 18,3 C 4,4 C 97 % 15 lf 1036,4 hPa 0,0 l/m 2 min 2 min 466 W/m 23,0 km/h
O (4 Bft)
100,00 %
Durchschnitt _ -0,2 C 1,9 C -1,9 C 83 % 1 lf 1034,0 hPa #0,0 l/m #8:33 h #6 min. 257 W/m 6,9 km/h (2 Bft) 95,72 %
© 2016 W. Hausmann